GFSFLT2_con_lsi_000.txt.gz
Lid_Strength_Index
8 7 9 11 13 11 13 14 15 14 12 9 8 7 6 6 6 6 5 5 4 4 3 3 3 3 2 3 4 4 5 2
7 8 8 9 9 13 14 17 18 15 14 13 11 9 8 7 7 6 5 5 4 4 3 3 3 2 2 2 3 4 3 2
10 11 11 10 12 12 13 14 16 17 15 10 9 8 8 7 6 6 5 5 4 4 3 3 2 2 2 2 3 4 2 1
11 9 8 9 11 12 14 15 15 15 14 8 8 8 7 7 6 6 5 4 4 4 3 3 3 3 3 2 3 3 2 1
13 12 11 11 11 11 13 14 15 15 13 8 8 8 7 8 8 7 5 5 4 4 4 3 3 3 3 2 2 2 2 2
14 13 11 12 11 10 12 14 15 13 12 10 8 8 7 6 6 6 5 5 4 4 4 3 3 3 3 2 2 2 2 2
12 10 10 10 10 10 12 12 13 12 11 10 8 8 7 6 6 6 6 6 5 4 4 4 3 3 3 2 2 2 2 2
12 10 10 11 9 9 9 10 10 11 10 8 6 6 7 6 6 6 6 6 5 4 4 4 3 3 3 3 2 2 3 2
14 11 10 12 10 10 10 8 9 12 10 8 8 7 8 8 7 7 6 5 5 5 4 4 3 3 3 3 2 3 3 3
14 13 15 11 8 7 9 9 8 9 8 7 7 7 7 7 7 6 6 6 5 5 4 3 3 3 3 4 4 4 4 3
14 15 13 10 9 9 9 10 8 9 7 7 7 6 8 7 6 6 6 5 4 4 4 3 3 3 4 4 4 4 4 2
14 15 15 12 8 7 7 13 7 7 7 8 7 10 8 6 5 5 4 4 4 4 4 3 3 4 4 5 5 5 3 2
15 16 13 9 8 7 13 12 7 7 7 8 8 7 7 6 5 5 4 4 4 4 4 4 4 3 5 5 5 4 3 2
14 15 16 7 8 12 9 8 6 6 6 6 6 6 5 5 6 6 6 4 3 4 4 4 4 3 5 5 4 4 3 3
14 14 9 7 7 7 6 7 6 6 5 5 6 5 4 5 5 5 4 3 3 4 4 4 4 5 6 6 4 3 4 4
11 9 9 7 6 6 6 6 6 5 5 5 6 5 5 5 5 5 4 4 4 5 6 6 6 5 5 3 4 4 4 4
11 9 7 6 6 6 5 5 5 5 5 5 5 6 5 5 5 5 5 5 5 4 5 7 6 5 4 4 4 4 3 2
13 9 8 8 6 5 7 7 6 6 6 5 4 5 5 5 5 5 5 5 6 5 5 6 5 5 4 3 3 4 4 3
8 6 6 5 6 6 6 6 6 7 7 6 6 5 4 5 4 5 5 5 6 5 4 4 4 4 3 3 2 3 3 3

GFSFLT2_con_lsi_003.txt.gz
Lid_Strength_Index
8 8 9 12 15 12 15 15 16 15 13 10 8 8 7 6 6 6 5 5 5 4 4 3 3 3 2 2 2 3 5 6
8 8 9 10 11 14 15 17 18 15 14 13 10 10 8 7 7 6 5 5 5 4 4 3 3 2 2 2 2 3 5 6
10 11 11 12 13 14 14 15 16 17 15 11 9 9 8 7 6 6 5 5 5 4 3 3 3 2 2 2 2 3 4 5
12 10 10 11 11 12 13 16 16 15 14 9 8 8 7 7 6 6 5 5 4 4 3 3 3 3 3 2 2 3 3 5
14 13 12 12 11 13 14 14 15 15 14 9 8 8 7 7 6 6 6 5 5 4 4 4 3 3 3 2 2 2 3 4
13 13 12 12 11 11 13 15 15 14 13 11 9 8 8 8 6 6 6 5 5 4 4 3 3 3 3 3 2 2 3 4
10 10 11 11 11 11 12 12 13 13 12 9 9 8 7 7 7 7 6 6 5 5 4 4 3 3 3 2 2 2 2 3
12 11 11 11 10 10 10 12 12 12 12 9 7 8 7 7 7 6 6 5 5 4 4 4 3 3 3 3 2 2 2 3
13 12 11 13 11 10 10 9 10 12 10 9 9 7 7 7 6 6 6 6 5 5 4 4 3 3 3 3 2 2 2 3
13 13 15 12 9 8 9 9 9 9 10 8 7 6 6 7 6 7 6 5 5 4 4 3 3 3 3 2 2 3 3 3
14 15 12 11 9 10 9 10 8 9 8 7 7 7 8 7 7 6 6 6 5 4 4 4 3 3 3 3 3 3 3 4
14 15 15 11 8 7 8 12 7 7 8 8 8 10 9 7 7 7 7 5 5 4 4 4 3 3 4 4 4 4 3 3
15 16 13 9 8 7 13 12 8 7 8 8 9 8 8 6 6 5 5 4 4 4 4 4 3 4 5 4 4 4 4 4
15 16 17 7 8 11 9 8 8 7 7 7 7 6 6 5 6 6 6 5 4 4 4 3 4 4 6 5 4 5 4 4
13 14 9 8 8 7 7 7 7 6 7 6 6 6 6 6 5 4 4 4 4 4 4 4 5 4 5 5 5 5 4 5
11 9 9 8 7 7 7 7 6 6 6 7 6 5 5 5 5 5 4 5 4 4 5 6 5 4 5 5 4 4 4 5
11 9 7 8 7 7 7 7 7 6 6 6 5 5 5 5 5 4 4 4 4 5 5 5 5 5 4 4 4 4 4 3
13 8 8 8 7 7 8 7 7 7 7 7 6 6 5 5 5 5 6 5 5 6 6 6 5 5 4 4 3 3 4 3
9 6 7 7 6 6 7 7 7 7 7 7 7 6 6 6 5 5 5 6 5 5 5 6 6 5 4 4 4 3 3 3

GFSFLT2_con_lsi_006.txt.gz
Lid_Strength_Index
10 10 10 13 15 13 17 18 17 15 13 10 9 8 7 7 6 6 5 5 5 4 3 3 3 3 2 2 2 2 1 2
9 9 10 11 11 14 17 19 19 16 14 13 11 9 8 8 7 6 5 5 4 4 4 3 3 2 2 2 2 2 1 2
10 11 11 12 14 15 15 16 18 18 15 11 10 8 8 7 6 6 5 5 5 4 3 3 2 2 2 2 2 2 2 3
12 10 9 10 12 13 14 17 17 16 15 9 8 8 7 7 6 6 5 5 4 4 4 3 3 3 3 2 2 2 2 3
14 13 11 12 12 13 14 15 16 16 14 9 9 7 7 7 6 6 5 5 5 4 4 4 3 3 3 2 2 2 2 4
14 12 11 12 11 12 13 15 15 14 12 10 8 8 8 7 6 6 6 5 5 5 4 4 3 3 3 2 2 2 2 4
10 11 10 10 11 11 12 13 13 11 12 10 8 8 7 7 6 6 6 6 5 5 4 4 4 3 3 2 2 2 3 3
12 11 10 11 11 10 11 11 11 11 12 9 7 7 7 7 7 7 6 5 5 4 4 4 4 3 3 3 2 2 2 3
14 13 13 14 11 11 11 10 10 12 10 9 8 7 7 7 6 6 6 6 6 5 4 4 3 3 3 3 2 2 2 2
13 15 17 11 9 9 9 9 8 9 9 9 7 6 6 6 6 6 6 5 5 5 4 3 3 3 2 2 2 2 2 2
17 16 13 11 10 9 10 10 8 9 7 7 7 6 7 6 5 5 4 4 4 3 4 3 3 2 3 3 3 3 3 3
15 16 16 12 9 7 8 12 8 7 8 8 7 10 9 6 5 6 5 5 4 3 3 3 3 2 3 3 3 3 3 2
15 15 14 10 8 7 12 12 8 7 7 7 8 7 6 5 5 5 4 4 3 3 3 3 2 2 3 3 3 2 2 2
15 16 17 8 8 11 9 8 7 7 7 7 7 6 5 5 5 4 4 4 3 3 3 3 2 3 3 4 2 2 3 4
13 14 9 8 9 7 7 7 7 7 7 6 6 6 5 5 5 5 4 4 3 4 4 3 3 2 3 4 3 3 5 5
12 9 9 9 8 8 7 7 7 7 6 5 6 6 6 5 5 5 4 4 4 4 4 4 4 3 3 4 4 5 5 4
11 9 8 8 7 7 7 7 8 7 7 7 7 7 7 5 5 4 4 4 4 4 4 4 3 4 4 4 4 4 4 4
12 8 8 9 7 6 8 8 7 8 8 7 7 7 6 7 4 4 4 4 5 5 4 5 4 4 4 3 3 2 3 3
8 8 8 8 7 7 9 9 8 8 8 8 7 8 7 7 6 4 4 4 4 5 5 5 4 4 3 3 3 3 3 3

GFSFLT2_con_lsi_009.txt.gz
Lid_Strength_Index
8 7 7 9 10 7 10 11 11 10 10 7 6 6 6 5 5 5 4 4 4 3 3 3 2 2 2 2 1 1 1 1
8 7 8 8 7 11 10 14 15 12 11 9 8 7 6 6 6 5 4 4 4 3 3 2 2 2 1 1 1 1 1 1
8 9 10 9 10 10 9 10 13 13 11 7 7 6 6 6 5 5 5 4 4 3 3 2 2 2 2 1 1 1 1 1
9 7 7 7 8 8 11 12 10 10 10 5 6 5 5 5 5 4 4 4 3 3 3 3 2 2 2 2 2 1 1 1
10 8 7 8 8 8 8 8 11 11 10 6 5 6 5 5 5 5 4 4 4 3 3 3 3 2 2 2 2 1 1 1
12 10 8 9 8 8 8 10 10 10 8 6 6 6 6 5 5 5 4 4 4 4 4 3 3 2 2 2 1 1 1 1
8 8 8 8 8 8 9 8 10 8 9 7 6 6 5 5 5 5 5 5 4 4 4 3 3 2 2 2 1 1 1 2
10 9 8 9 8 8 8 8 8 7 8 5 5 5 5 5 5 6 5 5 4 4 3 3 3 3 2 2 2 1 2 2
12 9 9 10 8 8 7 7 7 9 7 5 6 6 5 5 5 5 5 4 4 4 3 3 3 2 2 2 1 2 2 2
12 10 14 9 6 6 7 7 6 6 6 6 5 5 5 4 5 5 4 4 3 3 3 2 2 2 1 2 2 2 2 2
13 12 10 9 8 7 8 8 5 6 6 5 5 5 6 4 3 4 3 3 3 2 2 2 2 2 2 2 2 2 2 2
12 15 14 11 8 7 7 10 7 7 6 6 6 8 7 4 4 3 3 3 3 2 2 2 2 2 2 2 2 2 2 2
14 15 11 9 7 6 11 9 7 6 6 6 7 6 5 4 4 3 3 3 2 2 2 2 2 2 2 2 3 2 1 1
14 15 15 7 8 10 8 6 6 6 6 6 5 5 4 4 4 3 3 3 2 3 3 2 2 2 3 3 2 1 1 1
12 12 7 6 7 6 5 6 5 5 5 5 6 5 5 5 4 4 4 3 3 3 3 2 2 2 3 2 1 2 2 2
11 10 8 7 6 6 5 5 5 4 5 5 5 5 5 4 4 4 4 3 3 3 3 3 2 2 2 2 1 2 2 2
10 8 7 7 6 6 5 5 5 5 5 5 4 5 4 5 4 4 4 3 3 3 3 3 2 2 1 1 1 2 2 2
10 8 8 7 6 6 7 7 6 6 6 5 5 4 4 4 4 4 4 3 3 3 3 3 2 2 2 1 1 2 2 2
8 6 7 7 7 6 7 7 6 7 6 6 6 5 5 4 4 4 3 3 3 3 3 2 2 2 1 1 1 1 2 2

GFSFLT2_con_lsi_012.txt.gz
Lid_Strength_Index
6 5 5 7 9 6 9 8 11 9 8 6 5 5 4 4 4 4 4 3 3 2 2 2 2 2 1 1 1 1 1 0
6 5 5 6 5 9 9 14 14 10 9 9 7 6 4 5 4 4 3 3 3 2 2 2 1 1 1 1 1 1 1 0
6 7 7 7 8 7 7 9 12 13 10 6 6 5 5 4 4 3 3 3 3 2 2 2 1 1 1 1 1 1 1 1
8 6 5 6 7 7 10 11 9 10 10 5 5 4 4 4 3 3 3 3 3 2 2 2 2 1 1 1 1 1 1 0
9 7 6 7 7 7 7 7 10 11 10 5 4 4 4 4 3 3 3 3 3 3 3 2 2 2 1 1 1 1 1 1
11 9 7 8 7 7 7 10 9 9 8 6 5 5 4 3 3 3 3 3 3 3 3 2 2 2 2 1 1 1 1 1
7 7 7 7 8 7 8 7 9 8 8 6 5 4 4 3 3 3 4 4 4 3 3 3 2 2 2 1 1 1 1 1
9 7 7 8 7 7 7 7 7 7 7 5 4 4 4 3 3 3 4 4 3 3 3 3 2 2 2 2 1 1 1 1
11 8 8 10 8 7 7 6 7 8 6 4 5 4 4 4 3 3 4 4 3 3 3 3 2 2 2 2 1 1 1 1
11 10 14 8 5 6 7 6 5 5 5 4 4 3 3 3 3 3 3 3 3 3 2 2 2 2 1 1 1 2 2 1
12 12 9 8 7 7 7 7 5 5 5 4 4 3 4 3 3 3 3 3 2 2 2 2 2 1 1 2 2 2 2 2
11 13 14 10 7 6 6 10 5 4 5 5 4 7 5 3 3 3 2 2 2 2 2 2 2 1 2 2 2 2 2 1
11 12 10 8 7 6 12 9 6 4 4 4 5 5 4 3 3 2 2 2 2 2 2 2 1 1 2 2 2 1 1 1
10 13 14 7 7 11 8 6 5 5 4 4 5 4 4 4 4 3 3 3 2 2 2 2 1 1 2 2 1 1 1 1
9 10 7 6 7 5 5 5 5 5 4 4 5 5 4 4 3 3 3 2 2 2 2 2 1 1 2 2 1 1 1 1
9 9 7 6 5 5 4 5 4 4 4 4 4 4 4 4 3 3 3 3 2 2 3 3 2 1 2 1 1 1 2 2
9 8 7 6 5 5 4 4 4 3 4 4 4 4 4 4 4 3 3 2 2 2 3 3 2 2 1 1 1 2 2 2
10 7 7 7 5 6 5 5 4 4 4 3 3 4 3 4 3 3 3 3 3 2 2 2 2 2 1 1 1 1 2 2
7 6 6 6 6 5 6 6 5 5 4 5 4 4 4 3 3 3 2 3 3 3 2 2 2 2 1 1 1 1 2 1

GFSFLT2_con_lsi_015.txt.gz
Lid_Strength_Index
5 5 5 7 8 6 9 8 10 9 7 6 5 5 4 4 3 3 3 3 3 2 2 2 2 2 1 1 1 1 1 1
5 5 5 6 5 9 8 13 14 10 9 9 7 6 5 4 4 3 3 3 3 2 2 2 1 1 1 1 1 1 1 1
6 7 7 7 8 7 7 9 12 13 10 6 6 5 5 4 3 3 3 3 3 2 2 2 1 1 1 1 1 1 1 1
8 5 5 6 7 7 10 11 9 10 9 5 4 4 4 4 3 3 2 2 2 2 2 2 2 2 1 1 1 1 1 1
9 7 6 7 7 6 7 7 10 11 10 5 4 4 4 4 3 3 2 2 2 2 2 2 2 2 2 1 1 1 1 1
10 9 7 8 7 7 7 9 9 9 8 6 5 5 4 3 3 3 2 3 2 2 2 2 2 2 2 1 1 1 1 1
7 7 7 7 7 7 8 7 9 8 8 6 5 5 4 3 3 3 3 3 3 3 3 2 2 2 2 1 1 1 1 1
8 7 7 8 7 7 7 7 7 7 7 5 4 4 4 3 3 3 3 2 3 3 3 3 2 2 2 2 1 1 1 1
11 8 8 10 8 7 7 6 6 8 6 5 5 4 4 4 3 3 3 3 2 3 3 2 2 2 2 2 1 1 1 1
10 9 14 8 5 6 6 6 5 6 5 5 4 4 3 3 3 3 3 2 2 2 2 2 2 2 1 1 1 1 2 1
11 11 10 8 7 8 9 8 5 5 5 4 4 3 3 3 2 2 2 2 1 2 2 2 2 1 2 2 2 2 2 2
10 13 14 9 7 5 6 10 5 5 5 5 4 6 5 3 2 2 2 1 1 2 2 2 2 1 2 2 2 2 2 2
11 12 9 7 6 5 11 10 6 5 5 5 5 4 3 2 2 2 2 2 1 2 2 2 1 1 2 2 2 2 1 1
10 11 13 6 6 9 7 5 5 5 5 5 4 3 3 3 3 3 2 2 2 2 2 2 1 2 2 2 1 1 1 1
9 10 7 5 6 5 5 5 5 4 4 4 4 4 4 4 3 3 3 2 2 2 2 2 1 1 2 2 1 1 1 2
9 8 7 6 5 4 4 5 4 4 4 4 4 4 4 4 3 3 3 3 2 2 3 3 2 2 2 1 1 1 2 2
9 7 6 6 5 4 4 4 4 4 4 5 5 5 4 4 3 3 3 2 2 3 3 3 2 2 1 1 1 2 2 2
12 7 7 6 4 4 4 4 4 4 4 4 4 4 4 4 3 3 3 2 2 2 3 2 2 2 1 1 1 2 2 2
8 5 5 4 4 4 5 4 4 4 4 4 3 3 3 3 2 3 2 2 3 3 2 2 2 2 1 1 1 1 2 2

GFSFLT2_con_lsi_018.txt.gz
Lid_Strength_Index
5 5 6 7 9 7 9 9 11 9 8 6 5 6 5 5 4 4 4 4 3 3 3 2 2 2 2 2 2 2 1 1
6 5 5 7 6 9 9 13 14 11 11 10 7 7 6 6 5 4 3 3 3 3 3 2 2 2 2 2 2 2 1 1
6 7 8 8 8 8 8 9 12 13 11 6 7 6 6 5 4 4 3 3 3 3 2 2 2 2 2 2 2 2 1 1
8 6 5 6 8 8 10 11 9 10 10 5 5 5 5 4 4 3 3 3 3 3 3 2 2 2 2 2 2 2 1 1
10 8 6 7 7 7 7 8 10 11 10 5 5 5 5 5 4 4 3 3 3 3 3 3 2 2 2 2 2 2 1 2
11 9 7 8 8 7 8 10 10 9 8 7 7 6 5 5 4 3 3 3 3 3 3 3 2 2 2 2 2 1 1 2
8 7 7 8 8 8 8 8 10 8 8 7 6 6 5 4 4 4 4 4 3 3 3 3 3 2 2 2 2 1 2 2
9 7 8 8 7 7 7 8 8 7 8 5 4 4 5 5 4 4 4 3 4 3 3 3 3 3 2 2 2 1 2 2
11 8 8 10 8 7 7 7 7 9 6 5 5 5 5 4 4 4 4 3 3 3 3 3 3 2 2 2 2 2 2 2
11 9 14 8 6 6 7 6 6 6 5 5 5 4 4 3 4 4 3 3 3 2 3 2 2 2 2 2 2 2 2 2
12 12 9 8 7 7 7 7 5 6 5 5 4 4 4 3 3 3 3 3 2 2 2 2 2 2 2 2 2 2 2 2
10 13 14 9 6 5 6 10 6 6 6 6 5 8 6 3 3 3 2 2 2 2 2 2 2 2 2 3 3 3 2 2
11 12 10 6 6 5 12 10 6 6 6 5 6 6 4 3 3 2 2 2 2 1 3 3 2 2 3 3 3 2 2 2
11 13 14 6 7 10 7 5 5 5 5 5 5 4 4 4 3 2 3 2 2 3 3 2 2 2 3 3 2 2 2 2
9 9 7 5 6 5 5 5 6 5 5 4 4 4 4 4 3 3 3 2 2 3 3 2 2 2 3 3 2 2 2 2
9 8 7 6 5 4 4 5 5 5 5 5 5 4 4 4 3 3 3 2 3 3 3 3 2 2 2 2 2 2 2 2
9 8 7 6 5 5 5 4 5 4 5 5 5 6 5 5 4 4 4 3 3 4 4 3 3 2 2 2 2 3 2 2
12 9 8 7 5 4 5 5 4 5 5 4 5 5 4 5 4 4 4 3 4 4 4 3 3 2 2 2 2 2 3 3
8 7 6 5 4 4 4 4 3 4 4 5 4 5 5 5 5 5 3 3 3 3 3 3 3 2 2 2 2 2 3 2

GFSFLT2_con_lsi_021.txt.gz
Lid_Strength_Index
6 6 7 10 12 10 14 13 14 12 11 9 7 6 6 6 5 5 4 4 4 3 3 3 3 3 2 2 2 2 2 1
7 7 7 9 9 13 11 16 15 12 12 12 10 8 7 7 6 5 5 4 4 3 3 3 2 2 2 2 2 2 2 1
8 9 10 10 11 11 12 11 14 15 13 10 8 7 7 6 5 6 4 4 4 3 3 3 2 2 2 2 2 2 2 2
11 8 7 8 10 11 13 15 13 13 12 8 8 7 6 6 6 6 5 4 4 3 3 3 3 3 3 2 2 2 2 2
12 10 9 10 9 10 10 12 14 14 12 7 8 6 6 6 6 5 5 5 4 4 4 3 3 3 3 2 2 2 2 2
14 12 10 11 9 9 11 13 13 12 11 10 8 8 7 6 6 5 5 5 5 4 4 3 3 3 3 2 2 2 2 2
10 9 9 9 9 9 11 11 12 12 11 9 9 8 7 6 5 5 5 5 5 4 4 3 3 3 3 2 2 2 2 2
10 9 9 10 9 8 9 9 9 9 10 8 7 6 6 6 5 6 5 5 5 4 4 4 3 3 3 3 2 2 2 2
13 10 10 12 10 9 9 8 9 11 9 8 7 7 6 6 6 6 5 5 5 4 4 3 3 3 3 3 2 2 2 2
13 12 16 11 7 7 8 8 8 8 8 7 6 7 6 6 6 7 5 5 4 4 4 3 3 2 2 2 2 2 3 3
14 13 12 9 9 9 10 10 7 8 7 7 6 7 8 5 4 5 6 5 4 3 3 3 3 2 2 3 3 3 3 3
13 15 15 11 7 6 7 13 8 8 8 8 7 10 9 6 5 5 4 4 4 3 3 3 3 2 3 3 3 3 3 2
12 13 12 8 7 6 13 13 8 7 7 8 9 8 6 5 5 5 4 5 4 3 3 3 3 3 3 3 3 2 2 2
13 15 16 8 7 10 9 8 7 7 7 8 8 6 6 5 5 5 6 5 4 3 4 3 3 3 4 4 3 2 2 2
12 13 9 7 8 7 7 8 7 7 7 6 7 7 6 6 5 5 5 5 4 4 4 4 3 3 4 3 3 3 3 3
12 9 8 7 6 6 6 7 6 6 6 6 7 6 6 6 5 5 5 5 4 4 4 4 3 3 3 3 2 3 3 3
11 10 9 7 7 6 6 5 6 5 5 6 6 6 6 6 5 5 5 4 4 4 4 4 3 3 3 2 2 3 3 4
13 9 9 8 6 5 6 6 5 6 7 6 7 8 7 7 6 5 5 4 4 4 4 4 3 3 3 2 3 4 4 4
9 7 7 7 7 6 6 6 5 6 6 7 6 7 6 7 7 7 6 4 4 4 4 4 3 3 3 3 3 3 4 4

GFSFLT2_con_lsi_024.txt.gz
Lid_Strength_Index
7 8 9 12 14 11 15 15 16 15 13 10 8 7 6 6 5 5 5 5 4 3 3 3 3 3 2 2 2 2 2 1
8 8 7 10 10 14 16 17 17 16 15 13 11 8 7 7 6 5 5 5 4 4 3 3 2 2 2 2 2 2 2 1
10 11 11 10 12 15 14 14 16 18 14 11 10 9 8 7 6 5 5 4 4 4 3 3 2 2 2 2 2 2 2 2
12 10 8 8 10 13 14 17 15 13 14 8 8 9 7 6 6 5 5 5 4 3 3 3 3 3 3 2 2 2 2 2
15 13 11 11 10 10 15 15 14 16 15 9 9 9 6 7 6 6 6 6 4 4 4 3 3 3 3 3 2 2 2 2
15 13 12 13 10 10 11 13 14 14 14 12 10 9 9 8 6 6 5 5 4 4 4 3 3 3 3 3 2 2 2 2
13 12 10 10 11 10 12 11 13 12 14 12 10 10 10 9 7 6 6 5 4 4 4 4 3 3 3 3 2 2 2 2
14 11 11 11 9 9 10 10 11 12 13 10 9 9 9 7 6 7 6 5 4 4 4 4 3 3 3 3 3 2 2 3
17 12 11 12 11 10 10 10 10 13 11 10 9 8 7 7 6 7 7 5 5 4 4 3 3 3 3 3 2 2 3 2
17 14 16 12 8 8 10 9 10 10 9 9 8 8 6 5 7 7 6 5 5 4 3 3 3 3 2 2 2 3 3 3
17 16 13 10 10 9 11 11 8 10 9 8 7 7 8 6 6 7 6 6 4 3 3 3 3 2 3 3 3 3 3 3
13 15 16 12 9 7 8 12 8 8 8 8 7 10 9 6 6 6 5 5 6 3 3 3 3 2 3 3 3 3 3 3
14 15 13 10 8 7 12 12 8 8 8 8 9 8 7 6 6 5 5 4 6 6 5 3 3 3 3 3 3 2 2 2
14 15 16 8 8 10 9 8 7 7 8 7 7 7 6 6 6 6 5 4 4 7 5 4 3 3 3 3 2 2 2 2
13 14 9 8 9 7 7 8 8 8 7 7 7 7 6 6 6 5 5 5 4 6 6 5 3 3 3 3 2 2 2 3
12 10 9 8 8 6 6 7 6 6 6 6 7 7 7 6 6 6 5 5 4 4 5 5 4 3 3 2 2 3 3 3
11 10 9 9 9 7 6 6 7 7 7 7 7 8 8 8 7 5 5 4 4 5 4 4 3 3 3 3 2 3 3 3
13 9 9 8 7 5 7 7 7 8 9 8 8 9 8 9 8 7 5 4 5 5 5 4 4 3 3 2 2 3 4 4
9 6 7 6 7 7 7 7 7 7 8 8 8 8 8 8 8 7 5 4 4 4 4 4 5 5 3 3 3 3 5 6

GFSFLT2_con_lsi_027.txt.gz
Lid_Strength_Index
8 9 9 13 14 12 16 16 18 16 14 11 8 8 7 6 6 5 5 4 4 4 3 3 3 3 3 2 2 2 2 1
9 9 10 10 12 15 18 18 18 17 15 15 11 9 9 7 6 6 5 4 4 4 3 3 2 2 2 2 2 2 2 1
12 12 12 12 14 16 15 16 17 19 16 11 11 10 9 8 6 5 5 5 4 4 3 3 2 2 2 2 2 2 2 2
13 11 9 10 11 14 16 17 17 15 15 11 9 8 9 8 6 5 5 4 4 4 4 3 3 3 3 2 2 2 2 2
17 15 13 13 11 11 13 16 14 17 16 11 9 8 6 8 7 6 5 4 4 4 5 4 3 3 3 2 2 2 2 2
18 16 14 15 12 11 12 15 14 14 15 13 11 10 9 7 7 6 6 6 5 5 5 4 3 3 3 3 2 2 2 2
15 14 13 13 13 11 13 12 14 13 14 13 11 10 10 8 9 8 7 6 6 4 4 4 3 3 3 3 2 2 2 2
16 13 13 13 12 12 12 11 12 12 14 11 9 10 10 9 10 8 6 5 5 4 4 4 3 3 3 3 3 2 2 3
19 15 14 15 13 12 11 11 11 13 12 11 11 11 10 9 9 8 8 5 5 4 4 3 3 3 3 3 2 3 3 2
19 17 18 13 10 9 11 10 11 11 11 10 10 9 8 8 7 6 6 6 5 5 4 3 3 3 2 2 3 3 3 3
18 18 15 12 11 11 11 12 9 10 9 9 9 8 9 6 6 5 5 5 4 4 3 4 3 3 3 3 3 3 3 3
16 18 18 14 9 8 8 12 9 9 9 9 9 12 9 6 5 6 7 7 6 4 4 4 3 3 3 3 3 4 3 3
15 16 14 10 9 8 14 12 8 7 8 8 10 9 7 5 6 5 5 5 5 4 4 4 4 3 3 3 4 3 2 2
15 16 18 9 9 14 11 8 7 7 7 7 7 7 7 6 7 6 6 5 5 8 5 5 4 3 3 4 3 2 2 2
13 13 10 8 8 8 8 8 8 8 7 7 7 7 7 7 6 6 5 5 4 5 5 6 4 4 4 3 2 2 2 3
12 10 9 8 7 7 7 8 8 7 6 7 7 7 7 6 6 6 5 5 4 4 4 4 3 4 3 3 3 3 3 3
11 10 8 8 7 7 8 8 8 8 8 8 8 9 8 8 8 6 6 5 5 4 4 5 5 6 7 5 4 4 3 3
13 9 9 9 7 7 8 8 8 9 10 9 9 9 9 9 8 7 5 5 4 4 4 5 7 8 7 9 9 6 4 4
9 7 7 6 6 7 7 7 7 7 7 8 8 8 8 7 7 6 5 4 5 5 4 4 5 6 7 6 4 7 6 6

GFSFLT2_con_lsi_030.txt.gz
Lid_Strength_Index
10 10 10 14 14 13 17 17 18 17 15 11 10 9 7 6 6 5 5 5 4 4 3 3 3 3 2 2 2 2 2 1
10 10 10 12 12 15 18 19 20 18 17 14 11 10 9 7 7 6 5 5 4 4 3 3 2 2 2 2 2 2 2 1
12 13 12 14 15 16 15 17 18 20 17 13 10 9 9 8 7 6 5 5 4 4 3 3 2 2 2 2 2 2 2 1
15 13 10 10 12 15 16 18 19 18 16 11 11 8 8 8 8 6 5 4 4 3 3 3 3 3 3 2 2 2 2 2
18 14 14 14 12 14 13 16 16 17 16 9 10 9 8 8 8 7 5 5 4 4 4 3 3 3 3 2 2 2 2 2
19 17 15 16 14 13 13 15 14 15 15 13 11 10 9 8 7 6 5 5 5 4 4 3 3 3 3 2 2 2 2 2
16 14 14 14 14 13 15 13 14 13 13 12 11 11 9 8 7 7 5 5 5 5 4 4 3 3 3 2 2 2 2 2
17 14 14 15 13 13 13 13 14 13 13 12 10 10 9 9 8 8 7 6 5 4 4 4 3 3 3 3 2 2 2 2
19 15 15 16 14 13 13 12 13 14 12 11 11 10 10 9 9 9 8 7 6 5 4 3 4 3 3 3 2 2 3 2
19 17 20 15 12 11 12 11 11 12 11 10 9 8 8 8 8 8 8 7 6 4 3 3 3 3 2 2 3 3 3 3
19 19 16 14 10 11 13 12 10 10 10 10 9 9 9 8 8 8 7 6 6 4 3 3 3 3 3 3 3 3 3 3
18 19 20 14 10 8 9 15 8 8 9 9 10 12 10 7 5 7 6 5 4 3 3 4 3 3 3 3 3 3 3 3
18 18 16 11 9 8 15 13 9 8 9 9 10 8 7 6 5 5 5 3 3 3 4 3 2 3 3 3 4 3 2 2
18 18 19 8 9 13 10 8 8 8 8 8 9 7 5 5 5 5 5 5 4 4 4 5 3 3 4 4 2 2 2 2
13 16 10 8 9 7 7 8 7 7 7 7 6 7 6 6 6 5 5 5 4 4 4 3 3 3 3 3 2 2 2 3
11 10 9 8 7 6 6 7 7 7 6 6 7 7 6 6 6 5 5 5 4 4 4 4 4 5 4 3 2 2 3 3
11 9 9 8 7 6 7 7 8 8 9 8 7 8 7 7 6 5 5 4 4 5 6 6 5 5 5 5 4 3 3 2
12 8 9 9 7 6 7 8 8 9 9 9 8 8 7 6 6 5 6 6 4 4 4 4 4 5 4 3 4 4 3 3
9 6 7 6 6 6 7 7 7 7 7 7 7 6 6 6 5 5 4 4 4 4 4 3 3 3 2 2 2 2 3 4

GFSFLT2_con_lsi_033.txt.gz
Lid_Strength_Index
9 8 8 10 11 8 11 12 13 11 9 7 6 6 5 5 5 5 4 4 4 3 3 3 2 2 2 2 2 1 1 1
9 8 8 9 7 12 11 14 15 13 12 10 8 7 6 6 5 5 4 4 3 3 3 2 2 2 2 1 2 1 1 1
9 10 11 11 11 10 10 11 14 15 12 7 7 7 6 6 5 4 4 4 3 3 3 2 2 2 2 2 2 2 1 1
11 8 8 9 9 9 12 13 12 12 12 7 6 5 5 5 5 4 3 3 3 3 3 2 2 2 2 2 2 1 1 1
12 10 9 10 9 9 9 9 12 14 12 7 7 6 4 5 4 4 4 3 3 3 3 3 2 2 2 2 2 1 1 1
13 12 11 12 11 9 10 12 12 12 11 8 7 7 5 4 4 4 4 3 3 3 3 3 2 2 2 2 1 1 1 1
13 13 13 12 12 12 11 10 11 11 10 9 7 6 5 4 4 4 4 4 4 4 3 3 3 2 2 2 2 1 2 2
14 13 13 13 12 12 11 11 11 10 10 7 6 5 5 4 4 4 4 4 3 3 3 3 3 3 2 2 2 1 2 2
16 13 13 15 12 12 11 10 10 12 9 7 7 6 5 5 4 4 4 3 3 3 3 3 3 2 2 2 2 2 2 2
16 15 18 12 9 10 10 9 9 9 8 7 6 5 4 4 4 4 3 3 3 2 2 2 2 2 2 2 2 2 2 2
17 16 14 13 11 9 10 9 7 7 8 7 6 6 5 3 3 3 3 3 2 2 2 2 2 2 2 2 2 2 2 2
16 18 18 12 9 7 8 12 8 8 8 6 7 8 7 3 3 3 3 2 2 2 2 2 2 1 2 2 2 3 2 2
16 17 15 10 8 7 14 11 8 7 7 8 8 6 4 3 3 2 2 2 2 2 2 2 2 2 3 2 3 2 1 1
15 17 19 9 9 11 8 7 7 6 6 7 6 6 5 4 3 3 3 3 2 3 3 2 2 2 3 3 2 1 1 2
11 14 10 8 7 6 5 6 6 6 6 6 6 6 5 4 4 4 4 4 3 3 3 3 2 2 3 2 1 2 2 2
10 10 9 9 7 6 5 6 5 5 5 5 6 5 5 5 5 5 4 4 3 3 4 4 2 2 2 2 1 1 2 2
10 9 8 8 6 5 5 4 5 5 5 6 5 6 5 5 5 4 4 3 3 3 3 3 2 2 2 2 1 2 2 2
12 7 7 6 5 4 5 5 5 6 6 5 5 5 5 5 4 4 4 3 3 3 3 3 2 2 2 1 1 2 3 2
8 5 6 5 4 4 5 5 5 5 5 6 6 5 5 5 4 5 3 3 4 4 3 3 2 2 2 1 1 2 2 3

GFSFLT2_con_lsi_036.txt.gz
Lid_Strength_Index
7 6 6 8 9 7 9 9 10 9 8 6 5 5 4 4 3 3 4 3 3 3 2 2 2 2 1 1 1 1 1 1
8 6 6 7 6 9 9 12 13 10 9 9 7 6 5 4 4 3 3 3 3 3 2 2 2 1 1 1 1 1 1 1
8 9 9 8 9 8 8 9 12 12 10 6 6 5 5 4 4 3 3 3 3 2 2 2 1 1 1 1 1 1 1 1
9 7 7 7 8 8 10 11 10 10 9 6 5 4 4 4 3 3 2 2 2 2 2 2 2 2 2 1 1 1 1 1
10 8 8 9 8 8 8 7 10 11 9 5 4 4 4 4 4 3 2 2 2 2 2 2 2 2 2 1 1 1 1 1
11 9 8 10 9 8 8 10 10 9 8 7 6 5 4 4 4 4 3 3 2 2 2 2 2 2 2 1 1 1 1 1
9 10 10 9 9 8 9 8 10 8 8 6 5 5 4 3 3 4 4 4 2 2 2 2 2 1 1 1 1 1 1 1
11 10 11 11 9 9 8 8 8 8 8 5 5 4 4 4 3 3 4 4 3 2 2 2 2 2 2 2 1 1 1 2
12 10 11 12 10 9 9 8 8 9 7 5 5 5 4 4 3 3 3 2 2 3 2 2 2 1 2 2 1 1 1 1
12 11 15 9 7 7 9 8 7 7 6 6 5 4 4 3 3 3 3 2 2 3 2 1 1 1 1 1 1 2 2 2
14 13 11 10 9 9 9 9 7 7 6 6 5 5 5 3 2 2 2 2 2 1 1 0 1 1 1 1 1 2 2 2
13 15 15 10 8 7 7 11 6 6 6 6 5 7 6 3 3 2 2 1 1 1 1 1 1 1 1 2 2 2 2 2
14 14 12 8 6 5 11 11 6 6 6 6 7 6 4 3 3 2 2 2 1 1 1 1 1 1 1 1 2 1 1 1
13 14 16 8 9 10 6 5 5 5 5 5 5 4 4 4 4 3 3 2 2 2 2 1 1 1 2 2 1 1 1 1
11 12 8 7 8 6 6 6 6 5 4 4 5 4 4 4 4 3 3 2 2 2 2 2 1 1 2 2 1 1 1 2
9 9 9 8 7 7 6 6 4 4 4 3 4 4 4 4 4 3 3 3 2 2 3 3 2 1 1 1 1 1 2 2
8 7 7 7 7 7 6 6 6 5 3 3 3 4 4 4 4 3 3 3 3 3 3 3 2 2 1 1 1 2 2 2
10 6 7 6 6 6 7 7 5 4 4 3 3 5 4 5 4 3 3 3 3 3 2 2 2 2 1 1 1 1 2 2
8 5 5 5 5 5 6 5 4 4 3 4 4 4 4 5 4 4 3 3 3 3 3 2 2 2 1 1 1 1 2 2

GFSFLT2_con_lsi_039.txt.gz
Lid_Strength_Index
6 6 6 7 9 6 9 9 10 9 8 6 5 5 4 4 4 3 3 3 3 3 2 2 2 2 1 1 1 1 1 1
7 6 6 6 5 9 9 12 12 10 9 9 7 6 5 4 4 3 3 3 3 3 2 2 2 1 1 1 1 1 1 1
6 8 8 8 8 7 8 9 11 12 10 5 6 5 5 4 4 3 3 3 3 3 2 2 1 1 1 1 1 1 1 1
8 6 6 6 7 7 10 10 9 9 9 5 5 4 4 4 3 3 2 3 3 2 2 2 2 2 2 1 1 1 1 1
10 7 6 8 7 6 7 7 9 10 9 5 4 4 4 4 3 3 2 2 2 2 2 2 2 2 2 1 1 1 1 1
11 9 7 9 8 7 7 10 9 9 8 6 5 5 4 4 3 3 3 3 2 2 2 2 2 2 2 1 1 1 1 1
8 7 7 8 8 8 8 7 9 8 8 6 5 5 4 3 3 3 3 3 2 2 2 1 2 2 1 1 1 1 1 1
10 8 8 9 7 8 7 7 7 7 7 5 4 3 4 3 3 3 3 3 2 2 2 2 2 2 1 2 1 1 1 1
12 9 9 11 8 7 7 6 7 8 6 4 5 4 4 4 3 3 3 2 2 2 2 1 2 1 2 1 1 1 1 1
11 10 15 8 6 6 7 6 6 5 5 4 4 4 3 3 3 3 2 2 2 3 2 1 1 1 1 1 1 1 2 2
12 12 10 8 7 7 7 8 5 6 5 5 4 4 4 3 2 2 2 2 1 1 1 1 1 0 0 1 1 2 2 2
11 13 14 8 6 6 5 10 5 5 5 5 4 7 5 3 3 3 2 2 2 1 1 1 0 1 1 1 1 2 2 2
13 13 10 6 5 5 11 11 5 4 5 5 6 5 4 3 3 2 2 2 2 1 2 1 1 1 1 1 2 1 1 1
12 13 14 6 7 8 6 5 5 5 5 5 4 4 4 3 3 3 3 2 2 2 2 1 1 1 2 2 1 0 1 1
10 11 7 6 6 5 5 6 6 6 5 4 4 4 3 4 3 3 3 3 2 2 1 1 1 1 2 1 1 1 1 1
9 8 8 7 6 6 6 6 6 6 5 5 5 4 3 3 3 3 3 3 2 2 2 2 1 1 1 1 1 1 2 2
8 8 7 7 7 6 6 6 6 5 5 6 5 4 3 3 3 3 3 2 2 2 2 2 2 2 1 1 1 2 2 2
9 5 5 6 5 5 6 6 6 6 6 5 3 3 3 3 3 3 3 2 3 2 2 2 2 2 2 1 1 1 2 2
7 4 5 5 5 5 6 6 5 5 4 5 4 3 3 3 3 4 3 3 3 3 2 2 2 2 1 1 1 1 1 1

GFSFLT2_con_lsi_042.txt.gz
Lid_Strength_Index
6 6 6 8 9 7 10 9 11 10 8 6 5 5 5 4 4 4 4 4 3 3 3 3 2 2 2 2 2 2 1 1
6 5 6 7 6 10 9 13 13 11 10 10 7 6 5 5 4 4 4 3 3 3 3 2 2 2 2 2 2 2 1 1
7 8 8 8 8 8 8 9 12 13 10 6 7 6 5 5 4 4 4 4 3 3 3 2 2 2 2 2 2 2 1 1
9 6 6 7 8 8 10 11 9 10 10 5 5 5 5 4 4 3 3 3 3 3 3 3 2 2 2 2 2 2 1 1
11 8 7 8 7 7 7 8 10 11 10 5 5 5 4 4 4 4 3 3 3 3 3 3 3 2 2 2 2 1 1 1
12 10 8 9 8 7 8 10 10 9 8 6 6 5 4 4 4 3 4 3 3 3 3 3 2 2 2 2 1 1 1 2
8 8 8 8 8 8 8 8 10 8 8 7 5 5 4 4 3 4 4 3 3 3 3 3 3 2 2 2 2 1 2 2
10 8 8 9 8 8 7 7 7 7 7 5 5 4 4 4 4 4 4 3 2 1 1 2 2 3 2 2 2 1 2 2
13 9 9 11 8 8 7 7 7 9 6 5 5 5 5 4 4 3 4 2 2 1 1 1 2 1 2 2 1 2 2 2
12 11 16 9 6 6 7 6 6 6 5 5 5 4 4 3 3 3 2 2 1 2 2 1 1 2 1 2 2 2 2 2
13 13 11 9 7 7 8 8 5 6 5 5 4 4 4 3 2 2 2 2 2 2 2 1 1 1 2 2 2 2 2 2
11 14 15 9 6 5 5 10 6 5 5 5 5 7 7 4 3 3 3 3 3 2 2 2 2 1 2 2 2 3 2 2
12 13 10 7 7 5 11 12 6 6 5 5 6 6 4 3 3 3 3 3 2 2 2 2 1 1 2 2 2 2 2 2
12 12 14 7 7 10 7 6 6 5 5 6 5 4 4 4 3 3 3 3 2 3 2 2 1 2 2 2 1 0 1 2
10 10 6 6 7 6 6 7 7 6 6 5 5 5 5 4 3 3 3 3 3 3 2 2 2 1 2 2 1 1 1 2
9 8 7 7 6 6 6 6 7 7 7 7 7 6 7 5 3 3 3 3 3 3 3 3 0 0 1 1 1 2 2 2
9 8 7 7 7 7 7 6 7 7 7 7 7 7 6 4 3 3 3 3 3 3 3 3 2 2 1 1 1 2 2 2
11 7 8 7 6 6 6 7 6 6 6 6 6 5 4 4 3 3 3 3 4 3 3 2 2 2 2 1 1 2 2 2
9 6 6 6 6 6 6 5 5 5 5 5 5 4 4 4 3 3 3 3 3 3 2 2 2 2 1 1 1 2 2 2

GFSFLT2_con_lsi_045.txt.gz
Lid_Strength_Index
7 6 8 9 11 10 15 14 16 14 12 10 8 8 8 6 5 5 5 4 4 3 3 3 3 3 2 2 2 2 2 1
7 6 7 9 8 12 12 17 16 13 12 11 9 9 8 8 6 5 5 4 4 4 3 3 2 2 2 2 2 2 2 1
9 9 10 10 10 10 12 13 16 16 13 9 9 8 8 7 7 5 5 5 4 4 3 3 2 2 2 2 2 2 2 1
12 8 7 8 9 10 12 14 13 14 13 8 8 7 6 7 6 5 4 4 4 4 3 3 3 2 2 2 2 2 2 1
13 11 9 9 9 9 11 12 14 14 14 7 7 7 6 6 6 6 4 4 4 4 4 3 3 3 2 2 2 2 2 2
15 13 11 11 9 9 10 12 12 11 13 9 8 8 7 6 6 5 5 4 4 4 4 3 3 3 2 2 2 2 2 2
11 9 9 9 9 9 10 10 12 11 11 9 9 8 7 6 6 5 5 5 4 4 4 3 3 3 2 2 2 2 2 2
13 10 9 10 9 9 9 9 10 10 11 7 7 6 6 6 6 6 6 5 5 4 4 3 3 3 3 2 2 2 2 2
16 11 11 14 10 9 9 8 9 11 9 7 8 7 7 7 6 7 7 7 6 5 5 4 3 3 3 2 2 2 2 2
15 13 18 11 7 7 8 8 8 8 7 7 7 7 6 5 6 6 5 5 6 5 5 6 4 2 2 2 2 2 2 2
16 15 13 10 10 9 10 11 8 9 7 6 6 6 7 5 5 5 5 4 4 3 3 3 3 4 3 3 2 3 3 3
14 16 17 12 9 9 8 14 8 8 8 6 7 11 9 5 4 4 4 4 4 3 3 3 3 3 3 3 3 3 3 2
15 15 14 12 10 7 14 13 8 9 8 8 9 7 7 5 5 4 4 4 3 3 4 3 3 3 4 4 4 3 2 2
15 15 18 10 10 13 9 8 8 9 9 8 9 9 8 6 5 4 4 4 4 4 4 3 3 3 4 4 3 3 2 2
14 14 11 9 10 9 9 10 9 10 9 10 9 9 9 8 5 4 4 4 3 5 4 4 3 3 4 3 3 3 3 3
13 12 12 10 9 10 10 10 9 9 9 9 9 8 9 9 6 5 4 4 5 5 5 4 3 3 3 3 3 3 3 3
13 12 12 10 10 10 10 10 9 8 8 9 9 8 8 8 7 6 6 4 6 5 5 4 3 3 2 2 2 3 3 3
15 12 12 12 11 10 11 11 10 9 8 7 7 9 7 8 8 7 7 7 6 5 4 3 3 3 3 2 2 3 3 3
11 9 9 10 9 9 10 10 10 9 8 8 8 7 8 8 8 7 6 7 4 4 3 3 3 3 3 2 2 3 4 3

GFSFLT2_con_lsi_048.txt.gz
Lid_Strength_Index
8 7 8 10 12 11 16 16 17 15 14 11 10 10 7 7 6 6 5 5 4 4 3 3 3 3 2 2 2 2 2 1
8 8 8 10 10 14 16 17 19 17 16 13 12 11 10 7 7 6 5 5 4 4 3 3 3 2 2 2 2 2 1 1
11 12 10 12 11 12 12 16 16 18 14 12 11 11 10 7 6 6 5 5 4 4 3 3 2 2 2 2 2 2 2 1
14 10 10 8 13 12 13 16 16 15 13 9 9 8 9 8 6 5 5 4 4 4 3 3 3 3 3 2 2 2 2 1
15 15 12 13 10 12 13 14 15 14 13 9 9 9 7 7 8 5 5 5 4 4 4 3 3 3 3 2 2 2 2 2
18 16 14 14 11 11 11 13 14 13 13 11 9 9 7 8 7 5 5 5 4 4 4 3 3 3 3 2 2 2 2 2
15 15 13 13 11 10 13 11 13 12 12 11 10 9 8 8 6 5 5 5 5 4 4 3 3 3 3 2 2 2 2 2
17 13 12 12 10 9 10 10 11 11 12 10 8 8 7 7 6 6 6 5 5 4 4 4 3 3 3 2 2 2 2 2
18 12 11 14 12 10 10 10 10 12 11 8 8 8 8 9 7 7 6 5 5 4 4 3 3 3 3 2 2 2 2 2
18 14 18 12 10 10 10 10 9 10 9 8 8 7 7 6 6 6 5 6 6 6 5 3 3 2 2 2 2 2 2 2
17 16 13 12 12 12 13 12 10 9 8 8 7 7 7 5 5 5 5 5 5 5 5 5 4 3 2 2 2 2 3 2
17 18 19 14 11 10 9 15 10 10 10 9 7 11 9 7 5 5 5 4 4 4 3 4 5 5 3 3 3 3 3 2
16 17 15 12 11 9 15 14 10 11 10 10 11 10 9 7 6 5 4 5 4 5 5 5 4 5 4 4 3 2 2 2
16 17 19 11 12 15 13 11 11 11 11 11 10 9 9 7 7 5 5 5 5 4 6 5 4 4 4 4 3 2 2 2
16 16 11 11 11 10 11 13 12 11 10 10 10 10 9 8 8 8 6 5 6 6 5 4 3 5 4 4 3 3 3 3
16 14 14 13 12 12 12 12 12 11 11 10 11 9 10 9 8 8 8 10 7 6 6 5 3 3 3 3 2 3 4 3
15 15 13 12 12 12 12 11 11 11 11 10 10 10 10 10 9 9 8 10 9 7 6 6 3 3 2 2 2 3 3 3
16 13 13 13 12 11 12 11 11 11 11 11 9 10 9 10 10 9 8 9 8 8 6 5 5 3 3 2 2 3 3 3
10 10 11 11 10 10 10 11 10 10 10 11 9 9 9 10 10 8 9 7 8 7 5 5 4 3 3 2 2 3 3 4

GFSFLT2_con_lsi_051.txt.gz
Lid_Strength_Index
10 9 8 10 12 10 15 17 17 15 15 11 8 8 7 7 6 6 5 5 4 4 3 3 3 3 2 2 2 2 2 1
10 10 9 9 9 14 15 18 20 17 16 13 12 11 8 8 7 6 5 5 4 4 3 3 3 2 2 2 2 2 1 1
11 13 12 12 11 12 12 15 16 19 15 13 11 10 8 7 6 6 5 5 4 4 3 3 2 2 2 2 2 2 2 1
14 11 11 12 12 13 13 15 17 14 13 11 10 11 8 7 6 6 5 5 4 4 3 3 3 3 3 2 2 2 2 2
15 14 12 14 12 11 13 15 15 15 13 10 10 10 11 9 7 5 5 5 4 4 4 3 3 3 3 2 2 2 2 2
18 17 15 17 15 14 15 14 16 14 12 11 10 10 10 10 9 5 5 5 5 4 4 3 3 3 3 2 2 2 2 2
15 15 16 16 16 15 15 14 14 12 13 12 10 10 9 7 7 7 5 5 5 4 4 4 3 3 3 2 2 2 2 2
16 14 16 16 15 14 14 12 13 13 12 11 8 8 8 8 7 8 5 5 5 4 4 4 3 3 3 2 2 2 2 2
19 15 15 16 13 12 12 12 12 14 11 8 10 9 8 8 7 6 5 5 5 4 4 3 3 3 3 3 2 2 2 2
20 17 19 14 11 11 12 12 11 10 9 9 9 8 7 7 7 7 6 5 4 4 4 3 3 2 2 2 2 2 3 2
19 17 14 12 12 13 13 14 11 11 12 8 7 7 9 8 6 6 6 5 5 5 4 3 3 2 3 3 2 3 3 3
17 19 20 14 12 10 10 16 11 12 12 11 8 12 11 9 8 7 5 5 5 4 5 4 4 3 3 3 3 3 3 2
17 18 15 12 12 10 17 16 12 11 13 13 12 12 11 9 11 9 8 7 5 4 4 4 6 3 3 3 3 2 2 2
16 17 19 11 11 15 14 12 13 13 12 12 11 11 10 10 11 12 12 9 7 4 4 3 5 4 5 4 4 2 2 3
17 15 11 12 11 12 12 12 12 13 13 13 11 11 11 11 12 11 12 11 9 8 5 4 3 3 4 3 2 2 3 3
16 14 14 13 12 11 12 12 11 11 11 11 12 11 11 11 11 12 11 11 9 8 7 6 3 3 3 3 3 3 3 3
15 13 13 11 11 11 11 11 10 10 10 11 11 11 11 11 11 10 11 10 10 8 7 7 5 3 3 2 2 3 3 3
16 12 12 13 11 10 11 11 10 10 10 10 10 11 10 11 11 10 10 9 8 7 8 8 7 4 3 3 2 3 3 3
11 9 8 10 10 10 10 11 9 9 9 10 9 10 10 11 10 9 8 8 8 8 7 7 7 6 4 3 3 3 4 3

GFSFLT2_con_lsi_054.txt.gz
Lid_Strength_Index
10 9 10 12 13 11 15 15 16 14 13 10 9 8 7 7 6 6 6 5 4 4 3 3 3 2 2 2 2 2 1 1
10 9 10 12 10 14 15 20 20 16 15 13 11 10 8 8 7 6 5 5 4 4 3 3 2 2 2 2 2 2 1 1
11 12 12 13 13 12 12 14 17 18 15 11 9 8 9 8 7 6 6 5 4 4 3 3 2 2 2 2 2 2 1 1
14 10 10 12 14 13 14 16 14 15 14 9 9 8 8 8 6 6 5 5 4 4 3 3 3 3 2 2 2 2 1 1
15 14 12 14 14 16 16 15 14 15 14 9 10 10 9 9 7 5 5 5 4 4 4 3 3 3 3 2 2 2 1 2
18 16 14 16 15 15 16 19 14 13 12 11 9 10 10 10 10 8 6 5 5 4 4 3 3 3 3 2 2 2 2 2
13 13 14 15 15 15 17 16 17 13 13 11 10 9 10 9 8 9 8 6 5 5 4 3 3 3 3 2 2 2 2 2
14 14 14 15 14 14 14 14 14 14 14 10 9 8 8 8 7 7 7 7 5 4 4 4 3 3 3 3 2 2 2 2
17 14 15 16 14 12 13 13 13 14 12 9 10 9 8 8 7 7 7 6 7 4 4 3 3 3 3 3 2 2 2 2
17 14 19 13 9 11 13 13 13 12 11 9 9 8 8 8 7 7 6 6 4 3 3 3 2 2 2 2 2 2 2 2
18 17 15 12 11 13 14 14 12 13 14 13 9 8 9 11 10 9 7 5 5 3 3 3 3 2 2 3 3 3 3 2
15 18 20 14 11 10 11 16 12 13 13 14 8 14 13 11 12 10 8 5 4 3 3 3 3 2 3 3 3 3 3 2
17 17 15 12 11 10 15 16 12 13 14 14 13 11 11 12 11 11 8 6 4 4 4 3 2 2 3 3 3 2 2 2
15 17 19 12 11 14 13 12 12 12 12 14 13 11 12 13 12 10 9 7 6 4 4 3 3 3 3 3 2 2 2 2
15 15 12 11 12 11 11 12 12 13 12 12 13 13 12 14 13 9 9 8 8 7 4 3 3 2 3 3 2 2 2 2
14 13 12 11 10 10 10 11 11 10 11 12 13 12 12 12 13 13 10 9 8 8 8 7 4 3 3 2 2 2 3 2
14 12 11 10 9 10 10 10 10 9 9 11 11 12 11 12 12 11 10 9 8 8 8 8 7 4 2 2 3 3 3 3
15 11 11 11 9 9 10 10 10 9 10 9 10 10 11 11 11 11 9 9 9 9 8 9 8 7 4 2 2 2 3 3
11 9 8 8 9 9 9 9 9 9 9 9 8 9 10 10 10 10 10 8 7 8 9 8 8 8 5 3 2 2 3 3

GFSFLT2_con_lsi_057.txt.gz
Lid_Strength_Index
7 7 7 9 11 9 12 11 12 11 9 7 6 6 5 5 5 5 5 4 4 3 3 3 2 2 2 2 1 1 1 1
8 7 7 8 7 11 11 15 15 12 11 11 9 7 6 6 6 5 5 4 4 3 3 2 2 2 1 1 1 1 1 1
8 10 9 9 10 9 9 11 14 14 12 7 7 7 6 6 5 5 5 4 4 3 3 2 2 2 2 1 1 1 1 1
11 8 8 9 9 9 13 14 12 12 11 6 6 5 5 5 5 4 4 4 3 3 3 3 2 2 2 1 1 1 1 1
13 9 9 10 10 10 9 10 13 14 12 5 5 5 5 5 5 4 4 4 4 3 3 3 3 2 2 2 2 1 1 1
14 12 11 12 11 11 11 12 12 12 10 8 6 6 5 6 6 4 4 4 4 4 3 3 3 2 2 2 1 1 1 1
11 11 12 12 12 12 13 11 12 10 10 8 7 6 5 4 5 5 5 4 4 4 4 3 3 2 2 2 1 1 1 1
12 10 11 13 12 12 12 11 11 11 10 7 6 6 6 7 6 6 5 5 4 3 3 3 3 3 2 2 2 1 2 2
14 10 11 13 11 11 10 10 10 11 8 7 8 8 7 7 6 6 6 5 4 4 3 3 3 2 3 2 2 2 2 2
13 11 18 10 7 8 10 10 9 9 9 8 8 7 6 7 6 5 5 5 4 4 3 3 2 2 2 2 2 2 2 2
14 16 13 11 10 10 11 11 9 10 9 9 6 6 6 8 8 7 4 4 4 3 3 2 2 2 2 2 2 2 2 2
12 18 19 14 9 8 8 14 9 9 10 11 7 10 8 10 10 8 5 4 4 3 3 2 2 2 2 3 2 3 2 2
14 16 13 11 10 9 16 13 10 9 10 10 10 9 10 11 9 6 5 4 3 3 2 2 2 2 3 3 3 2 1 1
13 16 18 11 11 12 10 9 10 10 10 11 10 9 10 11 10 8 7 6 3 3 3 2 2 2 3 3 2 1 1 1
13 13 10 9 11 9 8 9 10 9 9 9 11 12 11 12 11 10 9 9 6 3 3 3 2 1 3 2 1 1 2 2
13 10 10 9 9 8 8 8 9 9 9 9 10 11 11 12 11 11 10 10 9 9 7 4 2 2 2 1 1 1 2 2
12 10 10 10 9 7 7 8 8 8 8 9 10 10 10 11 11 10 10 9 9 10 10 9 6 3 2 1 1 2 2 2
13 9 9 10 9 8 8 8 8 8 8 8 9 9 10 10 10 9 9 9 8 9 10 9 8 6 5 3 1 2 2 2
10 8 8 9 9 9 9 9 9 10 10 10 9 9 9 9 9 10 8 8 8 8 8 8 8 7 6 4 2 2 2 2

GFSFLT2_con_lsi_060.txt.gz
Lid_Strength_Index
6 5 6 8 9 7 9 9 11 9 8 6 5 5 5 5 4 4 4 3 3 3 2 2 2 2 1 1 1 1 1 0
7 6 6 7 6 10 9 13 14 11 10 9 7 7 5 5 5 4 4 3 3 3 2 2 2 1 1 1 1 1 0 0
8 8 8 8 9 8 8 9 12 13 10 6 6 5 6 5 4 4 4 3 3 3 2 2 1 1 1 1 1 1 1 0
10 6 6 7 8 8 11 12 10 10 10 5 5 4 4 4 4 3 3 3 3 3 2 2 2 2 1 1 1 1 1 0
11 9 6 8 8 8 8 8 11 12 11 5 4 5 4 4 4 3 3 3 3 2 3 2 2 2 2 1 1 1 1 1
12 10 9 11 9 9 9 12 11 10 9 7 5 5 5 4 4 3 3 3 3 3 2 2 2 2 2 1 1 1 1 1
10 9 10 10 10 9 10 9 11 9 9 7 5 5 4 4 4 4 3 3 3 3 3 2 2 2 2 1 1 1 1 1
11 10 9 11 10 10 10 9 9 9 9 5 5 4 5 5 5 5 4 4 3 3 2 2 2 2 2 2 1 1 1 1
12 9 9 11 9 8 8 8 8 10 7 5 6 6 6 5 5 5 4 4 3 3 2 2 2 2 2 2 1 1 1 1
11 10 14 9 6 6 7 7 6 7 6 5 6 5 5 4 5 5 4 4 3 3 2 2 1 1 1 1 1 2 2 1
13 12 10 9 10 10 12 9 6 7 6 6 5 5 6 4 4 4 4 3 3 2 2 2 2 1 1 1 2 2 2 2
11 15 16 13 9 7 7 13 6 6 6 6 6 9 7 5 5 4 3 3 3 2 2 2 2 1 1 2 2 2 2 2
13 14 11 8 8 7 16 12 6 6 6 6 7 6 5 8 7 6 5 3 2 2 3 2 1 1 2 2 2 2 1 1
12 14 16 7 8 13 10 6 7 6 6 6 6 7 9 9 8 7 7 6 3 3 2 1 1 1 2 2 1 1 1 1
11 11 7 6 8 7 7 8 8 7 6 7 8 9 9 10 9 9 7 7 8 4 3 2 1 1 2 2 1 1 1 1
11 9 9 7 6 6 6 6 6 7 7 7 8 9 10 10 10 10 10 8 8 7 6 4 2 2 1 1 1 1 2 2
12 10 9 8 7 6 6 5 7 6 7 8 8 8 9 10 10 10 9 9 8 8 7 6 4 3 2 1 1 2 2 2
13 10 10 10 8 7 8 8 9 9 8 8 9 9 9 9 9 9 10 8 8 8 8 7 6 5 4 3 1 2 2 2
10 8 9 8 8 8 9 8 9 9 10 10 9 10 9 9 8 8 8 8 8 8 8 7 7 7 6 4 1 2 3 2

GFSFLT2_con_lsi_063.txt.gz
Lid_Strength_Index
6 5 6 7 9 6 9 9 10 9 8 6 5 5 5 6 5 5 4 3 3 3 2 2 2 2 1 1 1 1 1 0
6 5 5 6 6 10 9 13 14 10 9 9 7 6 5 5 5 4 4 3 3 3 2 2 2 1 1 1 1 1 1 1
6 8 8 7 9 8 8 9 12 13 10 6 6 5 5 4 4 4 4 3 3 3 2 2 1 1 1 1 1 1 1 1
9 6 5 6 7 7 11 12 9 10 10 5 5 5 4 4 4 3 3 3 3 2 2 2 2 2 1 1 1 1 1 1
10 8 6 8 7 7 7 8 11 11 10 5 4 5 4 4 3 3 3 3 3 2 2 2 2 2 2 1 1 1 1 1
12 10 8 9 8 7 8 10 10 10 8 6 5 5 4 4 3 3 3 3 3 3 2 2 2 2 2 1 1 1 1 1
9 8 9 9 9 8 8 9 11 9 9 7 5 5 4 4 3 3 3 3 3 2 2 2 2 2 2 1 1 1 1 1
11 8 8 10 9 9 8 8 8 9 9 5 5 5 4 4 4 4 4 3 3 2 2 2 2 2 2 1 1 1 1 1
13 9 9 11 9 9 8 7 7 10 7 5 6 5 5 4 4 4 4 3 3 3 2 2 2 2 2 2 1 1 1 1
14 10 16 9 6 6 7 7 6 6 6 6 6 5 5 4 5 4 4 3 3 3 2 2 1 1 1 1 1 1 2 1
15 13 10 8 8 9 10 9 5 6 5 5 5 5 5 4 4 4 3 3 3 2 2 1 1 1 1 1 2 2 2 2
11 14 15 9 8 6 7 11 7 5 5 5 5 8 6 4 3 3 3 2 3 2 2 2 1 1 1 2 2 2 2 2
12 13 11 7 6 5 14 13 7 6 6 6 7 6 4 3 3 3 3 2 2 2 3 2 2 1 2 2 2 1 1 1
12 13 15 6 6 10 8 6 6 6 5 6 5 4 4 3 4 3 3 3 3 3 3 2 1 2 2 2 1 1 1 1
10 10 6 6 7 5 5 6 6 5 5 5 5 4 4 6 6 6 5 3 5 6 4 5 2 1 2 2 1 1 1 2
10 7 7 7 5 5 5 6 5 4 4 5 5 5 7 6 6 6 6 5 5 7 7 7 6 4 2 1 1 1 2 2
10 8 9 8 7 7 7 5 5 4 4 5 5 6 6 7 7 6 5 5 6 6 8 8 8 7 6 3 1 2 2 2
12 10 10 9 8 6 8 6 6 6 7 6 7 8 8 7 6 6 6 6 6 7 8 8 8 8 8 7 6 2 3 2
10 8 8 8 8 8 7 7 6 6 7 8 6 6 7 8 7 6 6 7 7 6 7 7 8 9 8 7 6 3 2 2

GFSFLT2_con_lsi_069.txt.gz
Lid_Strength_Index
7 7 8 10 12 11 14 12 14 13 11 9 8 8 8 7 6 7 6 5 5 4 3 3 3 2 2 2 2 2 1 1
9 8 8 9 9 14 14 17 18 14 13 12 10 9 8 8 8 7 6 5 5 4 4 3 2 2 2 2 2 2 1 1
10 12 12 11 12 13 13 14 16 16 14 9 9 8 8 7 7 7 6 6 5 4 3 3 3 2 2 2 2 2 1 1
12 9 8 10 12 13 15 15 13 14 13 7 8 8 7 7 7 6 5 5 5 4 3 4 4 2 2 2 2 2 1 1
14 11 10 11 10 11 13 14 15 16 13 7 7 7 6 7 7 6 5 5 5 4 5 4 4 3 2 2 2 2 1 1
16 14 11 12 11 10 13 17 16 15 13 10 8 7 7 6 6 6 5 5 5 5 4 4 3 3 2 2 2 2 2 2
11 10 10 11 11 10 12 13 16 14 13 11 8 7 7 6 6 6 6 5 5 5 4 4 4 3 3 2 2 2 2 2
12 9 9 12 11 10 10 10 11 12 12 10 8 6 6 6 6 7 6 5 5 4 4 4 3 3 3 2 2 1 2 2
15 11 11 13 12 11 10 9 10 13 11 10 10 10 7 7 7 7 6 5 5 4 4 4 3 3 3 3 2 2 2 2
15 14 18 11 7 9 10 9 9 9 8 8 7 6 6 6 6 6 5 5 4 4 4 3 3 2 2 2 3 2 2 2
16 16 12 10 9 10 11 11 8 9 8 8 7 6 7 5 5 5 5 5 4 3 3 3 3 2 2 2 3 4 3 2
14 18 19 12 8 6 7 14 8 7 8 8 7 12 9 6 4 5 5 5 4 4 3 3 3 3 3 3 5 5 2 2
15 16 13 9 7 6 14 14 7 7 7 7 9 7 6 5 6 6 6 5 4 5 5 4 4 3 5 3 3 2 2 2
14 16 18 7 8 12 9 7 7 6 7 7 6 5 5 5 6 6 6 5 5 5 5 5 4 5 5 4 5 4 3 2
13 13 8 7 7 6 5 7 6 7 6 6 6 6 5 6 5 6 5 5 5 6 6 5 5 5 6 7 6 6 5 2
12 9 9 7 7 6 6 6 6 5 5 5 6 5 5 5 5 5 5 5 4 5 6 6 5 5 6 6 7 6 5 3
11 10 9 8 8 6 6 6 5 4 4 5 5 5 5 5 5 5 5 4 5 6 6 6 5 6 5 6 7 8 7 4
13 10 10 9 8 6 7 6 5 5 5 5 4 5 4 5 5 4 4 3 5 5 5 7 7 6 6 6 7 8 8 5
9 8 8 7 7 6 7 7 6 5 5 5 4 5 4 4 4 4 3 3 3 5 6 7 7 6 6 6 7 8 9 8

GFSFLT2_con_lsi_072.txt.gz
Lid_Strength_Index
9 10 11 12 13 12 15 16 16 15 12 9 9 8 8 7 7 7 6 5 4 4 3 3 3 2 2 2 2 2 1 1
9 10 10 13 11 14 16 18 19 15 15 14 11 9 8 8 7 7 6 5 5 4 4 3 2 2 2 2 2 2 1 1
11 13 14 13 14 15 15 15 17 18 15 11 10 9 9 8 7 6 6 5 5 4 3 3 3 2 2 2 2 2 1 1
15 11 10 12 14 16 18 18 16 15 14 8 8 7 7 8 6 6 5 5 5 4 4 3 3 3 2 2 2 2 1 1
15 14 13 13 13 14 15 17 17 17 15 9 7 7 7 8 7 6 6 5 5 4 4 4 3 3 3 2 2 2 1 1
18 16 13 14 13 13 15 18 17 17 15 13 10 9 7 7 7 6 6 5 5 5 4 4 3 3 4 2 2 2 2 2
14 11 11 11 11 13 15 15 17 15 15 13 11 10 7 7 6 7 6 6 5 5 4 4 3 3 3 2 2 2 2 2
13 10 11 12 11 11 12 12 13 13 14 8 7 7 8 7 7 7 6 6 5 5 4 4 3 3 3 2 2 2 2 2
18 12 12 15 12 11 11 11 11 15 12 8 9 8 8 7 7 7 6 6 5 4 4 4 3 3 3 2 2 2 2 2
17 15 19 12 9 8 9 10 9 10 9 8 8 7 7 6 6 6 5 5 5 4 4 3 3 2 2 2 2 2 2 2
17 17 13 11 9 9 11 12 8 9 8 7 7 7 7 6 6 6 6 5 4 3 4 4 4 4 3 2 2 3 3 3
16 18 19 12 9 7 8 15 8 8 8 8 7 12 9 7 6 6 6 4 5 4 4 4 5 4 4 3 3 3 3 4
16 17 14 10 8 7 15 14 7 7 8 8 9 7 7 6 6 6 5 4 4 5 5 5 4 5 5 5 4 4 3 3
16 18 18 7 8 12 9 8 7 7 8 8 8 6 5 5 6 6 6 5 4 6 5 5 4 5 6 6 6 4 3 3
13 13 9 7 7 6 7 8 8 7 6 6 8 7 6 5 5 5 5 6 5 6 6 5 5 6 6 5 5 5 4 3
14 11 10 9 8 8 6 8 7 6 6 6 7 6 7 6 5 5 5 5 5 6 6 6 6 6 7 5 5 5 5 4
12 11 10 9 8 8 7 6 6 6 5 5 5 5 6 6 6 5 5 5 5 6 6 8 7 7 6 6 5 5 5 5
15 11 9 9 8 7 7 7 7 7 6 5 4 5 4 6 5 5 5 3 3 5 6 7 7 8 7 6 6 5 6 6
10 8 8 8 7 6 7 7 7 7 6 6 4 4 4 5 4 4 3 4 5 5 7 8 7 7 7 7 6 7 6 6

GFSFLT2_con_lsi_075.txt.gz
Lid_Strength_Index
10 10 12 13 15 13 16 17 16 16 13 11 8 8 8 8 7 7 6 5 5 4 4 4 3 3 2 2 2 2 1 1
11 11 11 13 13 16 16 18 19 16 15 14 11 10 9 8 8 7 6 5 5 4 4 3 3 3 2 2 2 1 1 1
13 14 14 14 16 17 17 17 18 18 16 11 10 9 9 9 7 7 6 5 5 4 3 3 3 3 3 2 2 2 1 1
15 12 11 12 15 17 19 19 18 17 15 11 10 7 8 8 7 6 6 5 5 4 4 3 3 3 3 2 2 2 1 1
17 15 13 14 14 16 17 19 19 20 17 10 9 10 7 8 7 6 6 5 5 4 4 4 4 3 3 2 2 1 1 1
17 17 15 15 13 14 16 18 18 17 16 12 10 9 8 8 7 6 6 6 5 5 4 3 4 3 3 2 2 2 2 2
15 12 12 13 14 13 16 16 17 15 15 12 10 9 8 7 7 7 6 6 5 5 5 4 3 3 3 2 2 2 2 2
15 12 12 13 12 12 12 13 14 13 13 9 8 8 8 8 7 7 6 6 5 5 4 4 3 3 3 2 2 2 2 2
18 13 14 17 14 12 12 11 11 14 12 8 9 8 8 8 7 7 6 5 5 5 4 4 3 3 3 2 2 2 2 2
18 16 19 15 11 10 11 10 10 10 9 8 8 7 7 7 6 7 6 5 5 5 5 4 4 4 4 2 2 2 2 2
18 19 16 13 11 11 12 12 9 10 8 8 8 8 7 8 6 6 6 5 5 5 5 5 5 5 4 2 2 2 2 3
17 20 19 14 9 7 8 15 8 8 8 8 8 12 9 8 7 5 5 5 5 5 6 6 6 5 5 5 4 5 4 2
18 19 15 10 9 7 15 14 8 7 8 8 9 9 7 6 6 5 4 5 4 4 6 6 6 6 6 6 7 5 5 4
15 19 19 9 9 13 10 9 8 8 8 8 8 7 7 7 5 5 4 4 5 5 5 6 6 6 7 7 6 6 5 4
14 15 9 9 10 9 9 10 9 8 8 8 8 7 6 8 7 5 4 4 4 6 5 6 6 7 9 7 6 5 6 6
13 13 11 10 9 9 9 9 7 7 7 6 7 6 6 5 6 6 5 4 4 5 6 7 7 7 7 7 6 7 6 6
15 12 11 9 8 8 8 7 7 6 6 7 6 6 6 5 5 6 6 5 4 4 6 8 8 8 8 7 6 7 7 7
15 12 12 11 8 7 8 7 7 7 7 6 6 6 5 5 4 5 6 5 5 3 5 7 8 8 8 7 8 7 9 7
11 10 10 9 8 6 6 6 7 6 6 7 7 6 5 5 4 4 5 5 3 3 4 6 8 9 8 8 7 8 8 8

GFSFLT2_con_lsi_078.txt.gz
Lid_Strength_Index
11 11 12 13 15 14 17 18 17 16 13 10 9 8 8 8 7 7 6 5 5 4 4 3 3 3 2 2 2 1 1 1
12 11 11 13 14 16 16 18 19 17 15 15 13 12 9 8 8 7 6 5 5 4 4 3 3 3 2 2 2 1 1 1
13 15 16 15 16 17 17 17 18 19 16 12 13 10 11 8 7 7 6 5 5 4 3 3 3 3 3 2 2 2 1 1
17 13 12 14 16 18 18 18 19 17 17 12 9 8 8 8 7 6 6 5 4 4 3 3 3 3 3 2 2 1 1 1
17 16 14 15 14 17 18 19 19 18 16 11 8 8 8 7 7 6 6 5 5 4 4 4 3 2 3 2 2 1 1 1
18 18 16 15 14 14 17 18 19 18 16 12 10 9 9 8 6 6 6 5 5 5 4 3 3 3 2 2 2 2 1 1
15 13 13 14 14 14 16 16 17 16 15 11 10 9 8 8 8 7 6 6 6 5 4 3 3 3 2 2 2 1 2 2
15 13 13 14 13 13 14 14 14 13 13 9 8 7 8 8 7 8 7 6 6 6 6 5 5 4 3 2 2 1 2 2
19 15 15 17 14 13 12 11 12 15 12 9 9 8 8 8 7 7 6 5 6 6 6 6 5 5 5 3 1 2 2 2
18 18 20 16 12 11 10 10 10 10 9 8 8 8 6 6 7 7 6 5 4 5 5 6 5 6 5 4 2 2 2 2
18 19 16 13 11 11 12 12 8 9 9 8 8 8 7 7 7 7 6 5 5 4 4 4 5 5 5 4 5 4 3 2
18 20 19 14 9 8 9 15 9 8 9 10 9 12 9 8 8 6 5 5 5 4 4 5 5 6 6 5 6 6 5 5
17 19 15 10 9 8 15 15 9 9 9 10 11 9 8 8 7 7 6 5 4 4 5 4 4 6 7 6 7 6 6 5
15 18 19 9 9 12 11 10 10 10 10 10 9 8 8 8 8 7 7 6 5 5 5 4 4 7 8 7 7 5 5 5
15 15 10 9 10 9 9 11 10 10 9 8 9 9 7 7 6 7 6 6 5 5 5 5 5 5 7 7 6 6 6 5
15 13 12 10 9 8 8 9 9 8 8 8 8 8 7 7 6 6 5 5 5 5 5 6 5 5 6 6 6 6 7 6
15 13 12 10 9 9 8 7 6 6 7 7 7 7 7 7 6 6 5 4 4 5 6 5 5 6 6 6 6 7 7 7
15 12 12 11 9 8 8 8 7 6 6 6 6 7 7 7 6 5 5 4 4 4 5 5 3 6 7 6 7 8 8 9
12 11 10 9 8 8 8 7 6 6 5 6 6 6 7 7 6 5 4 4 4 5 4 4 3 5 7 7 8 9 9 9

GFSFLT2_con_lsi_081.txt.gz
Lid_Strength_Index
9 9 9 10 10 9 11 12 12 12 10 8 7 7 7 7 6 6 5 4 4 3 2 2 2 2 1 1 1 1 1 0
10 9 9 9 9 11 10 14 14 14 13 12 10 10 8 8 8 6 5 4 4 3 3 2 2 1 1 1 1 1 1 0
10 12 13 10 10 11 10 11 13 15 13 8 10 9 9 8 7 6 5 4 4 3 2 2 2 1 1 1 1 1 1 0
13 11 10 11 12 12 11 13 12 11 12 8 8 8 7 7 7 6 5 4 4 3 3 2 2 2 2 1 1 1 1 1
13 11 10 11 11 12 12 11 12 12 13 7 7 7 7 7 6 6 5 5 5 4 3 3 2 2 1 1 1 1 1 1
12 13 11 12 12 11 12 12 12 12 12 9 9 8 7 7 6 5 6 7 6 7 5 4 2 2 2 1 1 1 1 1
11 11 12 12 13 12 12 12 12 12 11 10 9 8 7 6 5 6 6 6 7 7 7 5 5 4 2 2 1 1 1 1
13 11 12 12 12 12 12 12 12 11 10 7 7 6 6 6 6 6 6 6 6 6 6 6 6 6 4 2 1 1 1 1
13 12 12 14 12 12 11 10 11 12 9 7 8 7 6 6 5 5 5 5 5 5 5 5 5 6 6 4 2 1 1 1
13 12 16 11 9 9 10 9 8 8 8 7 7 7 5 6 6 5 5 4 4 3 4 4 3 5 4 4 4 3 2 1
13 13 12 11 9 9 10 10 8 8 8 7 6 5 6 5 6 6 6 4 4 3 3 3 4 3 4 4 5 5 5 3
12 15 15 11 8 7 7 12 7 7 7 7 6 9 7 5 6 6 6 5 5 5 4 3 3 2 3 5 5 6 6 6
13 13 11 9 7 6 12 11 7 7 7 8 8 7 6 6 6 5 5 5 4 4 5 4 3 2 3 4 6 5 5 6
13 14 15 7 7 10 8 7 7 7 7 8 7 7 7 6 6 6 5 5 5 4 4 4 4 3 3 3 4 5 4 6
11 11 7 6 7 6 7 8 7 7 7 7 7 7 7 6 6 6 5 5 5 5 4 4 3 3 3 3 2 4 6 5
10 8 7 6 6 6 6 7 6 6 6 6 7 7 7 6 6 6 6 5 4 5 5 4 3 3 3 3 2 3 5 6
10 9 8 7 7 6 6 6 6 5 6 6 5 5 5 6 6 6 6 5 4 4 4 4 4 3 3 2 3 4 4 4
11 6 7 7 6 6 6 6 5 5 5 4 4 5 5 5 5 6 6 5 4 3 3 3 3 3 3 1 2 5 6 5
7 7 7 6 5 5 5 5 5 5 4 4 4 4 5 5 5 5 6 5 5 5 3 1 1 2 2 1 2 3 6 7

GFSFLT2_con_lsi_084.txt.gz
Lid_Strength_Index
7 7 7 8 9 6 9 9 10 10 9 7 6 7 6 7 6 5 4 3 3 3 2 2 1 1 1 1 1 0 0 -0
8 7 7 7 6 10 9 13 13 11 12 11 9 9 8 8 7 6 4 4 3 3 2 2 1 1 0 0 1 0 0 -0
8 8 8 8 8 8 8 9 12 14 12 8 9 9 9 8 7 6 6 4 3 3 2 2 1 1 1 1 1 1 0 -0
9 8 8 8 8 8 10 11 9 10 12 7 7 7 7 7 7 6 5 4 5 4 3 2 2 1 1 1 1 0 0 0
11 9 8 8 8 8 7 8 10 11 12 6 6 7 6 7 6 6 6 5 6 5 5 4 3 2 1 1 1 0 0 0
10 9 8 10 10 9 8 10 10 9 11 9 8 7 6 6 5 6 6 6 6 6 6 6 3 2 2 2 1 0 0 0
8 9 10 10 10 10 9 8 10 9 10 9 7 7 6 5 5 5 5 6 7 6 6 5 5 5 3 1 1 1 1 1
10 10 10 11 10 10 10 9 8 8 10 6 6 5 6 5 5 5 5 4 4 5 6 6 5 5 5 4 3 1 1 1
11 10 10 12 9 10 10 9 8 9 8 6 7 6 6 5 5 5 4 4 4 3 3 3 3 4 5 5 4 3 3 1
9 10 14 10 8 8 9 8 7 7 6 6 6 5 4 4 4 5 4 4 3 3 2 1 1 1 2 4 5 6 5 5
11 11 10 9 8 9 9 8 6 7 6 6 5 5 5 4 4 5 4 4 4 3 3 2 3 2 2 1 2 4 6 6
10 13 13 9 7 5 6 10 6 6 6 6 5 7 7 4 4 4 4 4 4 4 3 3 2 3 2 2 2 3 4 4
10 12 9 7 6 5 11 11 6 5 5 5 6 5 4 3 3 3 3 3 4 4 4 3 2 2 2 2 2 1 2 2
10 12 14 5 6 9 7 5 5 5 4 5 4 4 4 4 3 3 3 3 3 3 3 3 3 3 3 2 1 1 1 1
9 9 6 4 5 4 4 6 5 5 4 5 5 5 4 4 4 4 3 3 3 3 3 2 2 2 3 2 2 1 1 1
9 6 6 5 5 4 5 5 5 4 5 5 5 5 5 4 4 4 3 3 3 3 3 3 2 2 2 2 2 2 1 1
8 6 5 5 4 4 4 4 4 4 4 4 4 4 4 4 4 4 4 4 4 4 3 3 2 1 1 2 1 2 2 2
10 5 5 5 4 3 4 4 4 4 5 4 4 4 4 4 4 4 4 4 4 5 4 3 3 2 1 0 1 2 2 2
5 4 5 4 3 3 4 4 4 4 4 4 4 3 4 4 3 4 4 3 4 4 4 4 3 3 2 1 1 2 3 1

GFSFLT2_con_lsi_087.txt.gz
Lid_Strength_Index
6 5 6 8 9 6 9 8 10 10 10 8 6 7 7 7 6 5 4 4 3 3 3 2 2 1 1 1 1 0 0 0
6 5 6 7 5 9 9 12 13 12 12 11 9 9 8 8 7 6 4 4 3 3 3 3 2 1 1 0 1 0 0 0
6 7 8 7 8 7 7 9 11 14 13 7 9 8 9 8 7 6 5 5 4 3 3 2 2 2 1 1 1 1 0 0
8 6 6 6 7 7 10 10 9 11 13 7 6 7 7 7 7 5 5 4 4 3 3 3 3 2 2 2 1 1 0 0
10 8 6 7 6 6 7 7 10 11 13 6 6 6 6 7 6 6 5 4 5 5 4 4 3 2 2 2 2 1 0 0
11 9 7 8 8 7 7 10 9 10 11 9 8 8 7 6 6 5 6 5 4 5 5 5 5 4 3 3 2 1 1 1
8 8 7 8 8 8 8 7 9 10 10 8 7 7 6 6 5 5 5 5 5 5 5 5 5 4 4 4 2 1 1 1
9 9 9 9 9 9 8 8 7 9 10 7 5 5 5 5 5 5 5 4 3 4 4 4 5 5 4 4 4 2 2 2
10 8 9 11 9 8 8 7 7 10 8 6 6 6 5 5 5 5 4 4 3 3 2 2 3 3 5 5 4 4 4 5
10 9 13 8 6 7 8 7 6 7 6 6 5 5 4 3 4 4 3 3 3 3 3 2 1 1 1 2 4 5 5 5
11 11 9 9 8 8 8 8 5 6 6 5 4 4 5 3 3 3 3 3 2 2 2 1 1 1 1 1 0 1 3 4
9 12 12 8 6 5 6 9 5 5 5 5 4 7 7 3 4 4 3 3 3 3 2 2 1 1 1 2 1 1 1 1
10 11 9 6 5 4 10 10 5 4 5 5 5 5 4 4 4 3 3 3 3 3 3 2 2 2 2 1 2 1 1 1
9 11 13 5 5 8 7 4 4 4 4 4 4 4 4 4 4 3 3 3 3 3 3 2 2 2 2 2 1 0 1 0
9 10 5 4 5 4 3 4 4 4 3 3 4 4 4 3 3 3 2 2 2 3 3 2 2 2 3 2 1 1 1 0
8 6 6 4 4 3 3 4 3 3 4 4 4 4 4 3 3 3 3 3 2 2 2 2 2 2 2 1 1 2 2 1
7 5 5 4 3 3 3 3 3 3 3 4 4 4 3 3 3 3 3 3 2 3 3 3 2 2 1 1 0 1 2 2
10 5 5 4 3 2 3 3 3 3 3 3 3 3 3 2 2 3 3 3 3 3 3 3 3 3 2 2 1 1 1 1
5 3 3 3 2 2 3 2 2 2 3 3 3 2 2 2 2 3 2 3 3 3 3 2 2 3 3 2 2 2 2 1

GFSFLT2_con_lsi_090.txt.gz
Lid_Strength_Index
5 5 6 8 10 7 10 9 11 12 11 9 8 8 7 7 6 6 6 4 4 3 3 2 2 2 1 2 1 1 1 1
6 6 6 7 6 10 10 14 14 14 14 14 10 10 8 8 7 6 5 5 5 4 3 2 2 2 1 1 1 1 1 1
6 8 9 8 9 8 8 9 13 16 14 8 9 9 9 8 7 6 6 5 5 4 3 3 2 2 2 2 2 1 1 1
9 6 6 7 7 8 11 12 12 15 16 8 8 8 7 7 6 6 5 6 4 3 3 3 3 2 2 2 2 1 1 1
10 8 6 8 7 7 7 8 12 14 14 8 7 7 7 7 6 6 5 5 5 4 3 3 3 3 2 2 2 1 1 1
13 10 8 9 8 7 8 10 10 13 12 10 9 8 7 7 6 5 5 5 5 5 5 4 4 3 3 2 1 1 1 1
8 8 8 8 8 8 8 8 13 12 12 10 9 8 7 6 5 5 5 5 4 5 4 4 4 4 4 3 3 2 2 2
9 9 8 9 8 8 8 8 9 11 12 8 7 6 6 6 6 6 5 4 4 3 3 3 3 4 4 4 4 3 3 3
11 8 9 11 9 9 8 7 9 12 11 7 7 7 6 6 5 5 4 4 3 3 3 2 2 2 3 3 3 3 3 3
11 9 14 9 6 7 8 7 7 8 8 7 6 5 5 4 4 4 4 3 3 3 3 2 3 2 1 1 1 2 3 3
12 12 9 9 8 8 8 8 6 7 7 6 6 5 5 4 3 3 3 3 3 2 2 1 2 1 1 1 1 1 1 1
10 12 14 9 6 6 6 9 5 6 6 6 5 9 7 4 3 4 3 3 3 3 2 2 1 1 1 1 1 2 1 1
10 11 9 6 6 5 10 9 5 5 5 5 6 6 4 3 3 3 3 3 3 3 3 2 2 2 1 1 2 1 0 0
9 11 13 5 6 8 7 5 4 4 4 5 4 4 4 4 4 4 4 4 3 3 3 3 2 2 2 2 1 0 0 1
10 10 5 4 5 4 4 5 4 4 4 3 4 4 4 4 4 4 4 4 4 4 4 3 2 3 3 2 1 0 1 1
8 7 6 5 4 3 3 4 3 3 3 3 3 3 3 4 4 4 4 4 4 4 4 4 3 3 3 2 2 1 1 1
8 6 5 5 4 4 3 3 3 3 3 3 3 4 3 3 3 3 3 3 3 3 3 4 3 3 3 3 3 3 3 2
10 5 5 5 3 3 3 4 3 3 3 3 3 3 3 3 3 3 3 3 3 3 3 3 3 3 3 3 3 4 4 3
6 4 3 3 3 2 3 3 2 2 3 3 2 2 2 3 2 3 3 3 3 3 3 3 3 4 3 3 3 4 5 4

GFSFLT2_con_lsi_093.txt.gz
Lid_Strength_Index
6 6 8 10 12 10 13 13 15 16 14 11 9 9 8 8 7 7 6 5 4 4 3 3 2 2 2 2 2 1 1 1
8 6 7 9 9 14 14 17 19 18 17 16 12 11 9 8 8 7 6 5 5 4 3 3 2 2 2 2 2 1 1 1
8 10 11 10 12 12 13 13 17 20 18 11 11 10 9 8 7 7 6 5 5 4 3 3 2 2 2 2 2 2 1 1
12 10 7 10 11 11 14 15 14 17 18 9 9 8 8 8 7 6 6 5 5 4 3 3 3 2 2 2 2 1 2 2
13 12 10 12 11 11 12 12 14 17 18 9 8 8 7 7 7 6 6 6 5 5 4 4 3 3 2 2 2 1 1 1
16 14 11 11 11 10 12 14 14 16 15 11 10 9 8 7 6 6 6 5 5 5 6 4 4 4 3 2 1 1 1 1
10 9 10 10 10 10 12 11 14 14 14 11 10 9 8 7 6 6 6 5 5 5 5 5 5 4 4 3 2 2 2 1
12 10 10 11 9 9 10 10 11 12 13 9 8 7 7 7 6 6 6 5 5 5 4 5 5 5 4 4 3 3 3 2
15 11 11 14 11 10 10 9 11 14 12 8 8 8 7 6 6 6 6 5 6 6 6 7 4 4 5 5 4 4 4 4
14 12 17 12 9 8 9 8 9 10 9 8 8 6 6 6 6 6 6 5 5 5 5 4 4 5 3 3 3 4 4 4
14 15 12 10 9 10 10 11 8 9 8 7 7 7 7 6 6 6 6 6 6 4 4 4 4 4 3 3 3 4 4 4
13 16 16 11 8 7 7 14 7 7 8 8 7 10 10 7 6 6 6 6 6 5 4 4 4 3 3 3 3 4 3 3
13 15 12 8 8 7 13 12 7 6 7 7 10 8 8 6 6 6 6 6 5 5 5 4 4 4 4 3 4 3 2 2
13 15 17 6 7 11 9 7 6 6 6 7 7 6 6 6 6 6 6 5 5 5 5 4 4 5 5 5 4 3 3 3
12 13 8 7 7 6 6 6 6 6 6 5 6 6 6 6 6 6 6 6 6 6 6 6 5 6 6 5 5 4 4 3
11 9 7 6 5 5 5 6 6 6 6 6 7 6 6 6 7 7 6 7 6 6 7 7 6 6 6 6 6 6 6 6
10 8 7 6 5 6 5 5 5 5 6 6 6 6 6 6 6 6 5 6 6 7 7 7 7 7 7 7 7 7 7 7
12 8 8 7 5 5 5 5 5 5 4 4 4 5 4 5 5 6 6 6 6 6 6 6 6 7 7 6 6 7 7 7
8 5 6 5 4 4 4 4 3 4 4 5 4 4 4 5 5 4 5 5 6 6 6 6 6 5 6 5 6 6 7 6

GFSFLT2_con_lsi_096.txt.gz
Lid_Strength_Index
7 7 8 13 13 11 14 14 16 16 14 10 9 9 8 8 7 7 6 5 5 4 3 3 3 2 2 2 2 1 1 1
8 8 8 10 9 13 15 17 20 18 17 17 12 11 9 9 8 7 6 5 5 4 3 3 2 2 2 1 2 2 1 1
10 11 11 11 12 12 14 15 19 21 18 11 11 10 10 8 7 7 6 5 5 4 3 3 2 2 2 2 2 2 2 2
13 10 8 10 12 13 15 14 16 17 17 9 9 9 8 8 7 6 5 5 4 4 3 3 3 2 2 2 2 2 2 2
14 13 11 13 12 13 14 12 15 18 17 9 8 8 8 8 7 6 5 6 5 4 4 4 3 3 2 2 2 1 1 1
16 15 13 14 12 12 14 15 16 17 15 12 10 10 8 7 6 6 6 6 6 6 5 5 4 3 3 2 1 1 1 1
12 11 11 12 12 11 12 12 14 15 14 11 10 9 8 7 6 6 6 6 6 7 6 5 5 4 3 2 2 1 1 1
12 11 10 12 11 10 10 11 12 13 13 9 8 7 7 7 6 6 6 5 5 6 6 6 6 5 4 3 3 2 2 2
15 12 12 14 12 12 10 11 12 15 11 8 9 8 7 7 6 7 7 7 7 6 6 5 5 5 5 5 4 4 3 3
15 13 18 13 10 9 11 10 10 10 9 8 8 7 6 6 7 6 7 7 8 8 7 6 6 4 4 5 5 5 4 3
16 16 12 11 10 11 12 13 9 10 9 8 7 7 8 6 7 7 8 7 6 6 6 6 5 5 5 6 6 7 7 6
15 17 17 11 8 8 8 15 8 8 8 8 8 11 9 7 7 8 7 7 7 7 6 6 5 4 4 5 5 5 5 4
14 15 13 9 8 7 13 14 8 8 8 8 9 9 8 8 8 7 7 7 6 6 6 6 6 5 6 6 6 5 4 3
13 16 17 7 8 11 9 9 7 7 8 9 8 8 8 8 8 8 7 7 6 7 7 7 6 6 7 7 6 5 5 5
13 13 8 7 7 7 7 8 8 8 7 7 8 8 8 9 8 7 7 7 7 7 7 7 7 7 8 8 7 7 7 7
11 9 9 7 7 6 6 8 8 7 7 7 8 7 8 8 8 8 7 7 7 7 8 8 8 8 8 7 7 8 8 8
11 9 8 6 7 6 6 6 7 6 6 7 7 8 8 8 8 8 8 8 8 8 9 9 8 8 8 8 8 8 8 8
12 9 9 8 7 6 7 7 7 6 7 6 6 6 7 8 7 7 6 7 7 7 7 8 8 8 8 8 8 9 9 9
9 7 6 6 6 6 6 6 6 6 6 6 5 5 5 6 6 5 6 6 7 7 7 8 8 8 7 6 7 7 8 8

GFSFLT2_con_lsi_099.txt.gz
Lid_Strength_Index
8 9 9 11 13 12 14 16 17 17 15 11 9 9 8 8 7 7 6 5 4 4 3 3 3 2 2 2 2 1 2 1
9 8 8 10 9 14 15 19 21 19 19 17 13 11 9 9 8 7 6 5 4 4 3 3 2 2 2 1 2 1 1 1
11 12 11 11 13 13 14 15 19 21 18 12 11 10 10 9 7 7 6 5 5 4 3 3 2 2 2 2 2 2 1 2
13 10 10 11 12 13 15 16 17 17 17 9 9 9 8 8 7 6 5 5 4 4 3 3 3 2 2 2 2 2 2 2
14 13 11 14 13 14 14 13 17 18 18 9 9 9 8 8 7 6 6 5 4 4 4 3 3 3 2 2 2 1 1 2
16 14 13 15 14 13 14 15 16 17 15 12 10 10 8 8 6 6 6 5 5 5 5 4 3 3 2 2 1 1 1 1
12 12 12 13 13 12 14 13 14 15 14 12 10 9 8 7 6 6 6 6 6 6 6 5 4 3 2 2 1 1 1 2
13 11 12 13 12 11 12 12 13 13 13 9 8 7 8 7 7 6 6 6 6 5 5 5 4 4 4 3 3 2 2 2
16 13 13 15 13 13 12 12 12 14 11 9 9 9 8 7 6 7 6 6 6 6 5 5 5 4 4 4 3 3 3 2
15 13 17 13 11 9 12 11 10 10 10 9 8 7 6 6 7 7 7 7 7 7 7 5 4 6 6 6 7 6 5 4
16 16 12 11 10 12 12 13 9 10 9 8 7 8 8 7 7 7 7 7 8 7 7 7 7 7 7 8 8 8 8 7
16 17 18 11 10 8 9 15 8 8 9 8 8 11 9 8 7 7 7 7 7 6 7 7 7 7 7 7 8 8 8 8
15 16 14 9 7 7 14 13 8 7 7 7 9 9 9 9 7 7 7 7 7 7 8 8 8 8 8 7 7 6 6 6
15 16 17 7 8 11 10 8 8 7 7 8 9 8 8 8 8 7 7 8 8 9 9 8 8 8 9 9 8 7 7 6
13 13 9 8 9 8 7 9 9 8 7 8 7 8 8 9 8 8 8 8 9 9 10 9 9 9 9 9 9 8 8 8
11 10 9 8 8 8 7 8 8 7 7 7 8 7 8 8 8 9 8 9 9 9 10 10 9 9 10 9 8 9 9 9
11 10 9 8 7 7 7 6 6 6 6 7 7 8 8 8 8 8 9 9 9 9 9 10 9 9 9 9 9 9 9 9
12 10 10 9 8 7 7 7 6 6 7 6 7 8 8 8 8 8 8 8 8 9 9 9 9 9 9 9 10 10 10 10
9 8 8 7 6 6 7 7 6 6 6 7 7 6 7 8 8 6 7 7 7 8 8 8 8 8 8 7 8 9 10 11

GFSFLT2_con_lsi_102.txt.gz
Lid_Strength_Index
9 10 9 12 13 11 15 16 18 17 14 11 9 9 8 8 7 6 5 5 4 4 3 3 3 2 2 2 2 1 1 1
9 8 9 10 10 14 16 19 21 19 18 16 13 11 9 9 8 7 6 5 4 4 3 3 2 2 1 1 2 1 2 1
11 12 11 11 13 14 14 15 19 21 18 11 11 10 10 9 7 7 6 5 5 4 3 3 2 2 2 2 1 1 1 1
12 11 10 11 12 13 15 17 16 17 17 9 9 9 8 8 7 6 5 5 4 4 3 3 3 2 2 2 2 1 1 1
14 13 12 14 13 13 13 13 17 17 17 9 9 9 8 8 7 6 6 5 5 4 4 3 3 3 2 2 2 1 1 2
16 15 14 14 13 13 14 15 16 16 15 12 10 10 8 8 7 6 6 5 5 5 4 3 3 3 2 2 1 1 1 1
13 12 12 13 14 13 14 13 15 14 14 12 10 9 8 7 6 7 6 6 5 6 5 4 3 3 2 2 1 1 1 1
12 11 12 13 11 12 12 12 13 13 15 9 8 7 8 7 7 7 6 6 6 5 6 5 5 4 4 3 2 1 1 2
16 12 12 15 13 12 11 12 12 15 12 9 9 8 8 7 6 6 6 6 6 6 5 5 5 5 5 4 3 3 3 3
15 14 17 11 10 9 12 11 10 11 10 9 8 7 6 6 7 7 7 6 6 6 6 6 6 7 6 7 7 6 6 5
15 16 13 11 11 11 12 13 9 10 9 8 7 8 8 6 7 7 7 7 6 6 7 7 7 7 7 7 8 8 8 7
16 17 19 12 9 8 8 14 8 8 9 8 7 12 9 7 7 8 7 7 7 7 8 8 8 8 8 9 9 9 8 9
15 16 14 10 8 7 13 13 8 7 8 8 9 8 9 7 8 7 7 7 7 8 8 8 7 7 8 8 8 7 7 8
15 16 17 9 8 11 10 7 7 7 7 9 8 8 9 9 8 8 8 7 7 8 9 9 9 9 9 9 8 7 7 7
12 13 9 8 9 8 8 7 7 8 8 7 8 8 8 8 7 7 8 8 8 9 9 9 9 9 10 9 8 8 8 9
11 10 9 8 7 7 7 6 7 7 7 7 8 7 8 8 9 8 8 8 8 9 9 10 9 10 10 9 8 9 9 9
12 9 8 8 8 8 6 6 6 6 6 7 7 7 7 8 8 9 9 9 9 9 10 10 10 10 10 9 9 10 10 10
12 9 10 9 7 7 7 6 6 6 6 6 6 7 7 7 8 8 8 9 9 10 10 10 10 10 10 9 9 9 10 10
9 8 8 7 7 6 7 7 6 6 6 6 5 6 6 7 7 8 8 8 9 9 9 9 9 9 9 9 9 10 10 10

GFSFLT2_con_lsi_105.txt.gz
Lid_Strength_Index
6 6 6 8 11 8 12 12 14 14 13 10 9 8 7 7 6 6 5 4 4 3 3 2 2 2 1 1 1 0 0 0
7 6 6 7 6 11 11 16 17 16 15 14 12 10 8 8 7 6 4 4 4 4 3 2 2 2 1 1 1 1 0 0
8 8 8 8 9 9 9 11 14 16 15 10 10 9 9 8 6 6 5 5 4 3 2 2 2 2 1 1 1 1 0 0
10 7 7 7 8 8 11 13 12 13 14 9 8 8 8 8 6 5 4 4 4 3 3 3 3 2 2 1 1 1 1 0
11 9 8 9 9 8 9 9 13 13 13 8 8 8 7 7 6 6 5 5 4 4 3 3 3 2 2 2 1 1 0 1
13 11 9 10 10 9 9 11 11 11 13 11 10 9 8 7 6 6 6 5 5 4 4 3 3 3 2 2 1 1 1 1
10 10 10 9 10 10 9 9 11 11 12 10 10 9 8 7 6 6 6 5 5 5 4 3 3 2 2 2 1 1 1 1
10 9 10 10 10 9 10 10 10 10 11 7 7 7 8 7 7 7 6 5 5 5 4 4 3 2 2 2 1 1 1 2
12 10 10 11 10 11 11 10 10 12 10 8 9 8 8 7 6 6 6 5 5 5 6 5 4 2 3 3 2 3 2 2
12 11 15 9 8 8 10 10 9 9 9 8 8 7 6 5 6 6 5 5 6 6 7 7 6 6 6 6 6 6 5 4
12 13 11 9 9 9 9 10 9 9 8 8 7 7 7 5 4 4 4 6 7 7 7 7 7 7 7 7 6 6 7 6
11 14 16 11 7 6 7 11 8 7 8 8 7 11 9 6 5 5 5 6 7 8 8 8 8 8 8 8 8 8 8 7
12 13 11 7 6 6 12 11 7 7 7 7 8 6 6 6 6 5 6 7 7 8 8 8 8 7 8 8 8 8 8 8
11 12 13 6 7 10 7 6 6 6 6 6 5 5 6 7 6 5 5 6 7 7 6 6 6 6 6 6 5 5 4 4
10 10 7 5 6 5 5 6 6 6 5 5 5 5 6 6 5 4 5 5 5 6 6 6 6 5 6 6 6 5 5 5
10 8 7 5 5 4 4 5 5 4 5 5 5 5 5 6 6 5 5 6 5 6 7 7 7 6 7 6 6 6 7 7
9 7 6 5 5 4 4 4 4 4 4 5 4 5 6 7 7 8 7 6 6 6 7 7 6 6 6 6 5 7 8 8
9 7 6 6 4 4 4 5 4 4 4 4 4 5 6 7 7 7 8 7 7 6 6 6 6 7 6 6 6 7 8 9
7 5 5 4 4 4 4 4 4 3 3 4 4 5 6 7 6 6 7 7 7 7 6 6 6 7 6 6 6 7 8 9

GFSFLT2_con_lsi_111.txt.gz
Lid_Strength_Index
5 5 5 7 10 7 13 11 14 13 10 9 7 7 6 6 5 5 4 3 3 2 2 2 1 1 1 1 1 0 0 -0
5 5 5 6 5 10 10 15 18 15 15 12 10 8 7 6 6 5 4 4 3 2 2 2 1 1 0 0 1 0 -0 -0
6 7 7 7 8 7 8 10 14 16 15 8 9 8 7 6 5 5 4 4 3 2 2 1 1 1 1 1 1 0 0 -0
8 5 5 6 7 7 10 11 9 10 14 7 7 6 6 6 5 4 4 3 3 2 2 1 2 1 1 1 1 0 0 0
9 7 6 7 6 6 7 7 9 11 13 7 6 6 6 6 5 4 4 4 4 4 3 2 2 2 1 1 1 0 0 0
12 11 8 8 7 6 7 9 9 9 12 9 8 8 7 6 5 4 4 4 4 4 4 3 3 2 2 2 1 1 1 1
8 8 8 7 7 7 8 7 9 8 8 8 7 7 7 6 6 5 5 4 4 4 4 3 3 3 2 2 2 1 1 1
9 8 8 8 7 7 7 7 7 7 7 6 6 6 6 7 6 6 6 5 4 4 3 3 3 2 2 2 1 1 1 1
11 8 8 10 8 7 7 6 6 9 9 5 8 7 7 7 6 6 5 5 5 4 4 3 2 2 2 1 1 1 1 1
11 10 15 8 5 6 7 8 6 7 7 6 6 6 6 5 5 5 5 5 4 5 3 3 2 2 2 1 1 1 1 1
11 13 12 10 7 7 8 9 6 7 6 6 6 6 7 4 4 4 4 4 4 5 6 5 3 2 1 1 1 2 3 2
11 13 18 13 8 5 5 11 7 6 6 7 7 9 8 5 4 4 3 4 6 6 6 7 6 4 4 4 4 5 4 3
10 12 11 8 7 5 12 11 5 5 6 7 8 7 5 4 4 3 5 6 5 7 8 7 7 7 7 7 8 7 6 4
9 14 15 5 6 10 7 5 5 5 5 6 6 5 5 4 4 5 6 7 7 8 7 6 7 8 8 7 6 6 6 5
8 11 6 4 5 4 4 5 5 4 5 4 5 5 5 5 4 5 5 6 6 7 7 6 5 6 7 6 5 5 5 5
8 6 6 5 4 3 3 4 3 3 3 4 5 5 5 4 4 4 4 4 5 5 5 7 5 6 5 5 4 4 4 4
6 6 5 5 4 4 3 3 3 3 3 4 4 4 4 4 5 5 6 6 5 4 4 5 5 5 5 4 3 4 5 5
8 5 5 5 4 3 4 4 3 4 4 3 4 4 4 5 4 5 5 5 5 5 5 5 5 5 4 3 4 5 5 5
5 4 4 3 3 3 3 3 3 3 3 4 3 3 4 6 6 5 4 4 4 5 5 4 4 5 4 4 5 5 5 5

GFSFLT2_con_lsi_114.txt.gz
Lid_Strength_Index
5 5 6 8 10 7 12 15 16 16 14 9 8 8 7 7 6 6 5 4 4 3 3 3 2 2 2 2 1 1 1 0
6 5 5 7 6 10 12 18 19 17 16 16 11 9 7 7 6 5 5 5 4 3 3 2 2 2 1 1 1 1 1 1
6 7 8 7 8 8 8 11 18 18 15 10 10 10 8 7 6 5 4 4 4 4 3 2 2 1 2 1 1 1 1 1
9 6 5 6 7 7 10 11 10 12 12 8 8 8 7 7 6 5 4 4 3 3 3 3 2 2 3 2 2 1 1 1
10 8 6 8 7 7 7 8 10 12 14 7 7 7 6 6 6 5 4 4 3 3 4 4 3 2 2 2 2 1 1 1
12 11 9 10 8 7 7 10 10 9 11 9 7 8 6 6 5 6 5 4 4 4 3 3 3 2 2 2 1 1 1 1
8 8 8 8 9 8 8 8 9 8 10 9 7 7 6 5 5 6 5 5 5 4 4 3 3 3 2 2 2 2 1 1
9 7 8 9 8 8 7 7 7 7 8 6 7 8 8 6 6 6 6 5 5 4 4 3 3 3 2 2 1 1 2 1
12 9 9 11 8 8 7 6 7 9 10 7 8 8 8 7 6 6 6 5 5 4 3 3 3 2 2 2 1 1 2 1
12 11 17 10 7 7 9 9 8 9 8 8 7 6 6 5 6 6 5 5 4 4 3 3 2 2 2 1 2 2 2 1
13 16 12 9 8 8 10 11 7 8 8 6 7 6 7 5 4 5 4 4 5 6 5 5 3 2 2 2 2 2 2 2
11 14 19 12 7 6 6 13 6 6 8 8 7 11 9 5 4 4 4 4 5 6 7 6 6 5 4 5 5 5 3 2
10 13 13 8 7 6 14 12 6 5 7 7 9 8 6 4 4 4 5 6 6 7 7 8 7 7 7 6 6 6 5 4
11 12 15 6 8 12 8 5 5 5 6 6 6 5 5 5 5 6 7 6 6 7 7 7 7 7 8 8 6 5 6 5
12 12 6 4 5 4 4 5 5 5 5 5 6 6 5 5 5 6 7 7 7 7 6 6 7 7 7 6 5 4 5 5
7 6 6 5 4 3 4 4 3 3 4 4 5 5 5 4 5 6 6 6 6 6 6 6 6 5 6 6 5 5 5 5
7 6 5 5 4 4 3 3 3 3 3 4 4 5 4 4 4 4 5 5 4 5 5 5 5 5 5 5 4 5 5 5
9 6 6 5 4 3 4 4 3 3 4 3 4 4 4 4 5 6 5 4 4 4 5 5 4 5 5 4 3 4 5 5
6 4 4 4 3 3 3 3 3 3 3 4 3 3 4 5 5 5 6 5 5 5 5 5 5 4 3 3 4 3 4 3

GFSFLT2_con_lsi_117.txt.gz
Lid_Strength_Index
6 6 7 10 12 10 16 15 18 16 14 11 8 8 7 7 6 6 5 5 4 4 3 3 3 2 2 2 2 1 1 1
7 7 8 9 8 14 15 20 21 18 17 16 12 10 8 7 7 6 6 5 4 4 3 3 2 2 2 1 2 1 1 1
8 10 11 12 13 12 12 14 19 20 18 11 11 9 9 8 6 6 5 5 4 4 3 3 2 2 2 2 2 2 1 1
11 8 7 9 12 12 15 15 14 16 15 8 8 8 8 8 6 5 5 5 4 4 3 3 3 2 2 2 2 1 1 1
12 10 8 10 10 10 11 13 14 14 16 8 8 8 6 7 6 6 5 5 4 4 4 4 3 3 3 2 2 2 1 1
15 14 10 11 9 9 11 15 13 13 14 11 9 9 8 7 6 6 5 5 5 4 4 4 3 3 3 3 2 3 3 2
10 9 9 9 9 9 11 12 13 12 12 11 10 9 8 7 6 6 6 5 5 5 4 4 3 3 2 2 2 1 2 2
12 9 9 10 9 9 10 11 12 11 13 9 8 7 8 8 7 7 7 6 5 4 4 4 3 3 3 3 2 1 2 2
15 10 11 13 11 10 10 10 11 14 11 8 9 8 7 7 7 7 6 6 5 5 4 4 3 3 3 2 2 2 2 2
15 13 18 12 8 8 9 9 9 10 9 8 8 7 6 6 6 6 6 5 5 5 4 3 2 2 2 2 2 2 2 2
16 17 14 11 9 10 11 12 8 9 9 8 7 7 7 5 5 5 5 6 6 6 6 4 3 2 2 3 2 2 2 2
13 15 19 13 8 7 7 14 7 8 8 8 8 12 10 5 5 6 5 5 6 7 6 6 6 5 5 6 5 5 3 2
14 16 14 9 8 7 14 14 7 7 7 8 10 8 6 6 6 6 7 6 6 7 8 8 7 7 8 7 7 6 5 3
14 16 17 7 7 11 9 7 6 7 7 7 7 6 5 6 6 7 6 6 7 8 8 7 7 7 7 7 6 6 5 4
12 13 8 7 7 6 5 7 6 6 6 6 6 6 5 6 6 6 6 7 6 6 7 7 6 7 8 6 6 5 5 5
11 9 8 6 5 5 5 5 5 5 5 5 6 5 5 5 6 6 7 6 6 6 6 6 6 6 6 5 6 6 5 5
9 8 7 6 5 5 5 4 4 4 4 5 5 5 5 5 5 5 5 5 5 6 6 6 6 5 5 4 5 6 5 6
12 8 8 7 5 3 5 5 4 5 5 4 4 5 4 5 5 5 5 5 5 5 6 6 6 6 5 4 4 5 5 6
8 5 6 5 4 3 4 4 4 4 4 5 4 4 5 5 5 5 5 5 6 5 5 5 5 5 6 5 5 5 5 5

GFSFLT2_con_lsi_120.txt.gz
Lid_Strength_Index
8 8 8 12 14 11 16 16 18 17 14 11 9 9 8 7 7 6 6 5 4 4 3 3 3 2 2 2 2 2 1 1
8 7 8 10 9 15 15 21 21 18 17 16 11 10 9 8 7 6 5 5 4 4 3 3 2 2 2 2 2 2 1 1
10 11 12 12 13 14 13 15 19 21 18 11 11 10 9 8 7 6 5 5 4 4 3 3 2 2 2 2 2 2 1 2
12 10 8 11 13 15 16 16 16 15 15 9 9 8 8 7 6 5 5 5 4 4 3 3 3 3 2 2 2 1 1 1
14 11 9 10 10 12 14 16 16 16 14 9 8 8 7 7 6 5 5 5 4 4 4 4 3 3 2 2 2 1 1 2
16 13 11 11 10 10 12 16 16 14 13 12 10 9 8 7 6 6 5 5 5 5 4 4 3 3 3 2 2 2 2 2
12 9 10 10 11 11 13 14 16 14 14 12 10 9 8 7 7 6 6 5 5 5 4 4 3 3 3 3 3 3 2 3
13 10 10 12 11 11 11 12 12 13 13 9 8 7 8 8 7 7 6 6 5 4 4 4 3 3 2 2 2 1 2 2
15 11 11 15 12 11 11 11 12 15 12 9 9 8 8 8 7 7 6 6 5 5 4 4 3 3 3 2 1 2 2 2
15 13 18 12 9 8 11 10 10 10 9 9 8 7 7 6 6 6 6 5 6 5 4 3 3 2 2 2 2 2 2 2
16 17 14 12 10 10 12 12 9 10 9 8 7 7 7 5 5 6 6 6 6 6 5 3 3 2 2 2 2 2 2 2
14 17 18 13 9 7 8 15 7 8 8 9 8 12 9 6 6 6 6 6 7 7 6 5 3 2 3 3 2 3 3 2
15 17 14 9 8 7 15 14 7 7 7 8 10 8 6 6 6 6 6 6 6 7 8 7 5 4 5 5 5 4 3 2
14 17 17 7 8 12 9 7 7 7 7 7 7 6 6 7 7 6 6 6 7 7 7 7 7 5 6 7 6 5 4 4
12 13 9 8 7 6 6 7 8 7 6 6 6 6 6 6 6 6 6 6 6 7 7 6 6 6 7 6 5 5 5 7
11 9 9 7 6 5 5 6 5 5 5 5 6 5 7 6 6 6 6 6 6 6 6 7 5 5 5 5 5 5 8 9
11 9 8 6 6 5 5 5 5 5 5 5 5 6 7 7 6 6 6 7 6 7 7 7 6 5 5 5 5 5 6 8
12 8 8 7 6 4 5 5 5 5 5 4 5 5 6 6 5 5 6 5 6 7 6 6 6 6 6 4 5 5 5 6
8 6 6 5 4 4 5 5 4 4 4 5 4 5 5 6 5 5 5 5 6 6 6 6 6 6 6 5 5 6 7 6

GFSFLT2_con_lsi_123.txt.gz
Lid_Strength_Index
8 8 9 12 15 11 16 16 19 17 14 10 9 8 8 7 7 7 6 5 4 4 3 3 3 2 2 2 2 2 1 1
10 8 8 10 9 15 15 21 22 18 17 16 12 11 9 8 8 7 6 5 4 4 3 3 2 2 2 2 2 1 1 1
11 13 12 13 14 14 13 15 19 20 17 11 11 10 10 8 7 7 6 5 4 4 3 3 2 2 2 2 2 2 2 1
13 10 9 10 13 15 16 17 16 16 15 9 9 9 8 8 7 6 5 5 4 4 3 3 3 2 2 2 2 2 1 1
14 11 9 11 11 13 15 16 16 15 14 9 8 9 8 7 6 6 5 5 4 4 4 4 3 3 2 2 2 1 1 1
16 14 12 13 12 11 13 16 16 15 15 12 10 10 9 8 7 6 5 5 5 4 4 3 3 3 2 2 2 1 1 2
13 10 11 12 12 12 14 15 18 15 14 12 10 9 8 7 7 7 6 6 5 5 4 4 3 3 2 2 2 2 2 2
13 10 11 13 11 11 12 12 13 13 14 9 8 8 8 8 7 7 6 6 5 4 4 4 3 3 3 3 3 3 2 2
16 12 12 15 12 12 12 11 13 15 13 9 9 9 8 8 7 7 6 6 5 5 4 4 3 3 3 2 2 3 3 2
15 14 18 13 10 9 11 11 10 10 10 9 8 7 7 6 6 6 6 5 5 4 4 4 3 2 2 2 2 2 2 2
16 17 14 12 10 11 12 13 9 10 9 8 7 8 8 6 5 5 5 6 7 6 5 3 3 2 2 2 2 2 2 2
15 17 18 12 9 7 8 15 8 8 9 9 8 12 10 6 6 5 5 6 7 6 6 6 3 2 3 3 3 3 2 2
15 17 14 10 8 7 15 13 8 8 8 9 10 8 6 6 6 5 5 6 6 7 7 6 4 2 4 3 4 3 2 2
15 17 17 8 8 12 9 8 8 8 8 8 6 6 6 6 5 5 6 6 7 7 7 7 5 5 5 5 4 3 3 2
12 13 10 8 8 7 7 7 9 8 7 6 6 6 6 7 6 5 5 6 6 6 6 6 6 5 6 6 4 5 5 6
11 10 9 8 7 7 6 7 6 5 6 6 6 5 6 7 6 5 5 6 6 6 7 7 6 6 5 5 6 7 8 9
11 10 8 7 7 6 6 5 5 5 5 5 6 7 7 8 7 5 5 5 6 7 7 7 6 6 5 5 6 8 8 10
12 8 8 8 6 5 6 6 5 5 6 5 5 6 7 7 7 7 5 6 7 6 7 7 6 6 6 5 5 7 8 9
8 6 6 5 5 5 5 5 4 5 5 5 5 5 6 7 6 5 6 5 7 7 7 6 6 7 6 5 5 6 6 7